KC5DAQ-22 Weather Reports


time (UTC)temp
C
wind
direction
speed
KPH
gust
KPH
rain 1hr
cm
rain 24hr
cm
rain mn
cm
humidity
%
barometer
mb
20260903205929 27 62 11.3 22.5 0.00 0.36 0.36 89 1011.7
20260903205829 27 42 11.3 22.5 0.00 0.36 0.36 89 1011.7
20260903205730 27 27 11.3 22.5 0.00 0.36 0.36 89 1011.7
20260903205630 27 27 12.9 22.5 0.00 0.36 0.36 89 1011.8
20260903205528 27 41 11.3 22.5 0.00 0.36 0.36 89 1011.8
20260903205429 27 16 9.7 16.1 0.00 0.36 0.36 89 1011.7
20260903205331 27 49 8.0 16.1 0.00 0.36 0.36 89 1011.6
20260903205229 27 6 6.4 14.5 0.00 0.36 0.36 89 1011.6
20260903205129 27 14 6.4 14.5 0.00 0.36 0.36 89 1011.6
20260903205030 27 0 8.0 14.5 0.00 0.36 0.36 89 1011.6
20260903204930 27 0 8.0 14.5 0.00 0.36 0.36 89 1011.6
20260903204827 27 3 8.0 11.3 0.00 0.36 0.36 89 1011.6
20260903204727 27 0 8.0 11.3 0.00 0.36 0.36 89 1011.6
20260903204629 27 23 8.0 11.3 0.00 0.36 0.36 89 1011.7
20260903204529 27 1 6.4 11.3 0.00 0.36 0.36 89 1011.7
20260903204427 27 20 8.0 11.3 0.00 0.36 0.36 89 1011.7
20260903204327 27 0 8.0 11.3 0.00 0.36 0.36 89 1011.8
20260903204227 27 0 6.4 11.3 0.00 0.36 0.36 89 1011.9
20260903204127 27 21 6.4 11.3 0.00 0.36 0.36 89 1011.9
20260903204028 27 23 6.4 11.3 0.00 0.36 0.36 89 1011.9
20260903203928 27 18 8.0 11.3 0.00 0.36 0.36 88 1011.8
20260903203828 27 0 8.0 11.3 0.00 0.36 0.36 88 1011.8
20260903203729 27 4 9.7 14.5 0.00 0.36 0.36 88 1011.8
20260903203627 27 355 9.7 14.5 0.00 0.36 0.36 88 1011.9
20260903203527 27 0 9.7 14.5 0.00 0.36 0.36 88 1011.9
20260903203427 27 10 8.0 14.5 0.00 0.36 0.36 88 1011.8
20260903203327 27 25 9.7 14.5 0.00 0.36 0.36 88 1011.8
20260903203229 27 358 9.7 14.5 0.00 0.36 0.36 88 1011.8
20260903203127 27 25 8.0 14.5 0.00 0.36 0.36 88 1011.7
20260903203027 27 6 8.0 14.5 0.00 0.36 0.36 88 1011.7
20260903202930 27 0 8.0 14.5 0.00 0.36 0.36 88 1011.6
20260903202829 27 0 9.7 14.5 0.00 0.36 0.36 88 1011.7
20260903202728 27 4 9.7 14.5 0.00 0.36 0.36 88 1011.6
20260903202627 27 16 9.7 14.5 0.00 0.36 0.36 88 1011.6
20260903202528 27 1 8.0 14.5 0.00 0.36 0.36 88 1011.5
20260903202427 27 355 8.0 14.5 0.00 0.36 0.36 87 1011.5
20260903202327 27 1 9.7 14.5 0.00 0.36 0.36 87 1011.5
20260903202229 27 0 8.0 11.3 0.00 0.36 0.36 87 1011.5
20260903202129 27 0 6.4 11.3 0.00 0.36 0.36 87 1011.5
20260903202027 27 0 4.8 11.3 0.00 0.36 0.36 87 1011.5
20260903201927 27 0 4.8 11.3 0.00 0.36 0.36 87 1011.6
20260903201829 27 0 6.4 11.3 0.00 0.36 0.36 87 1011.5
20260903201727 27 3 6.4 11.3 0.00 0.36 0.36 87 1011.6
20260903201627 27 0 8.0 11.3 0.00 0.36 0.36 87 1011.5
20260903201528 27 24 8.0 11.3 0.00 0.36 0.36 87 1011.6
20260903201426 27 4 6.4 11.3 0.00 0.36 0.36 87 1011.6
20260903201326 27 0 4.8 11.3 0.00 0.36 0.36 87 1011.6
20260903201227 27 0 6.4 11.3 0.00 0.36 0.36 86 1011.6
20260903201129 27 0 6.4 11.3 0.00 0.36 0.36 86 1011.6
20260903201027 27 10 6.4 11.3 0.00 0.36 0.36 86 1011.6
20260903200927 27 17 8.0 11.3 0.00 0.36 0.36 86 1011.6
20260903200827 27 1 8.0 11.3 0.00 0.36 0.36 86 1011.7
20260903200727 27 24 8.0 11.3 0.00 0.36 0.36 85 1011.7
20260903200625 27 30 9.7 11.3 0.00 0.36 0.36 85 1011.7
20260903200523 27 3 8.0 11.3 0.00 0.36 0.36 85 1011.8
20260903200423 27 21 6.4 11.3 0.00 0.36 0.36 84 1011.7
20260903200318 27 18 6.4 11.3 0.00 0.36 0.36 84 1011.8
20260903200215 27 13 6.4 11.3 0.00 0.36 0.36 84 1011.7
20260903200113 27 8 6.4 11.3 0.00 0.36 0.36 84 1011.8
20260903200014 27 10 6.4 11.3 0.00 0.36 0.36 83 1011.5
20260903195916 27 0 6.4 11.3 0.00 0.36 0.36 83 1011.6
20260903195812 27 0 4.8 11.3 0.00 0.36 0.36 83 1011.6
20260903195712 27 327 6.4 14.5 0.00 0.36 0.36 82 1011.4
20260903195610 27 354 6.4 14.5 0.00 0.36 0.36 82 1011.5
20260903195508 27 333 4.8 14.5 0.00 0.36 0.36 82 1011.5
20260903195407 26 329 6.4 14.5 0.00 0.36 0.36 82 1011.6
20260903195306 26 336 6.4 14.5 0.00 0.36 0.36 83 1011.5
20260903195204 26 353 6.4 14.5 0.00 0.36 0.36 83 1011.6
20260903195103 26 357 8.0 14.5 0.00 0.36 0.36 83 1011.5
20260903195002 26 0 8.0 14.5 0.00 0.36 0.36 83 1011.6
20260903194903 26 350 9.7 14.5 0.00 0.36 0.36 83 1011.6
20260903194804 26 324 9.7 14.5 0.00 0.36 0.36 83 1011.6
20260903194703 26 345 8.0 14.5 0.00 0.36 0.36 84 1011.6
20260903194603 26 333 6.4 11.3 0.00 0.36 0.36 84 1011.7
20260903194504 26 341 4.8 11.3 0.00 0.36 0.36 84 1011.7
20260903194403 26 327 6.4 11.3 0.00 0.36 0.36 84 1011.7
20260903194301 26 1 8.0 14.5 0.00 0.36 0.36 84 1011.8
20260903194202 26 341 8.0 14.5 0.00 0.36 0.36 84 1011.7
20260903194103 26 350 6.4 14.5 0.00 0.36 0.36 84 1011.7
20260903194004 26 340 8.0 14.5 0.00 0.36 0.36 84 1011.7
20260903193903 26 340 8.0 14.5 0.00 0.36 0.36 84 1011.7
20260903193804 26 340 8.0 14.5 0.00 0.36 0.36 84 1011.8
20260903193704 26 340 8.0 14.5 0.00 0.36 0.36 84 1011.8
20260903193556 26 333 8.0 14.5 0.00 0.36 0.36 84 1011.8
20260903193455 26 357 8.0 14.5 0.00 0.36 0.36 84 1011.9
20260903193353 26 350 6.4 14.5 0.00 0.36 0.36 84 1011.9
20260903193251 26 0 6.4 9.7 0.00 0.36 0.36 84 1011.9
20260903193149 26 330 6.4 9.7 0.00 0.36 0.36 84 1011.9
20260903193048 26 0 8.0 9.7 0.00 0.36 0.36 84 1012.0
20260903192942 26 334 8.0 9.7 0.00 0.36 0.36 84 1012.0
20260903192841 26 348 8.0 9.7 0.00 0.36 0.36 84 1011.8
20260903192739 26 296 6.4 9.7 0.00 0.36 0.36 84 1011.9
20260903192638 26 306 6.4 9.7 0.00 0.36 0.36 84 1011.9
20260903192538 27 303 6.4 9.7 0.00 0.36 0.36 84 1011.9
20260903192435 26 300 6.4 9.7 0.00 0.36 0.36 84 1011.8
20260903192335 27 305 6.4 11.3 0.00 0.36 0.36 84 1011.9
20260903192231 26 329 8.0 11.3 0.00 0.36 0.36 84 1011.8
20260903192132 26 327 6.4 11.3 0.00 0.36 0.36 84 1011.8
20260903192030 26 323 6.4 11.3 0.00 0.36 0.36 84 1011.8
20260903191932 26 312 4.8 11.3 0.00 0.36 0.36 84 1011.8
20260903191831 26 336 4.8 11.3 0.00 0.36 0.36 84 1011.8
20260903191731 26 329 6.4 11.3 0.00 0.36 0.36 84 1011.7
20260903191631 26 329 6.4 11.3 0.00 0.36 0.36 84 1011.7
20260903191532 26 310 6.4 11.3 0.00 0.36 0.36 84 1011.8
20260903191431 26 341 6.4 14.5 0.00 0.36 0.36 84 1011.7
20260903191331 26 333 6.4 14.5 0.00 0.36 0.36 85 1011.7
20260903191231 26 331 8.0 16.1 0.00 0.36 0.36 85 1011.7
20260903191130 26 333 8.0 16.1 0.00 0.36 0.36 85 1011.8
20260903191028 26 4 6.4 16.1 0.00 0.36 0.36 86 1011.7
20260903190928 26 0 6.4 16.1 0.00 0.36 0.36 86 1011.7
20260903190825 26 0 6.4 16.1 0.00 0.36 0.36 86 1011.7
20260903190725 26 0 8.0 16.1 0.00 0.36 0.36 86 1011.8
20260903190626 26 333 9.7 16.1 0.00 0.36 0.36 87 1011.8
20260903190527 26 345 9.7 16.1 0.00 0.36 0.36 87 1011.8
20260903190425 26 327 8.0 16.1 0.00 0.36 0.36 87 1011.8
20260903190325 26 0 8.0 16.1 0.00 0.36 0.36 87 1011.8
20260903190227 26 0 8.0 16.1 0.00 0.36 0.36 87 1011.8
20260903190126 26 3 9.7 16.1 0.00 0.36 0.36 87 1011.9
20260903190026 26 354 8.0 16.1 0.00 0.36 0.36 87 1011.9
20260903185925 26 0 9.7 16.1 0.00 0.36 0.36 87 1011.9
20260903185827 26 355 9.7 16.1 0.00 0.36 0.36 87 1012.0
20260903185726 27 11 9.7 16.1 0.00 0.36 0.36 87 1011.9
20260903185625 27 4 9.7 16.1 0.00 0.36 0.36 86 1011.9
20260903185527 27 31 9.7 16.1 0.00 0.36 0.36 86 1011.9
20260903185425 27 16 8.0 16.1 0.00 0.36 0.36 86 1011.9
20260903185326 27 18 9.7 16.1 0.00 0.36 0.36 86 1012.0
20260903185226 27 11 11.3 16.1 0.00 0.36 0.36 86 1012.0
20260903185126 27 16 9.7 14.5 0.00 0.36 0.36 86 1012.0
20260903185025 27 4 6.4 14.5 0.00 0.36 0.36 85 1012.0
20260903184925 27 348 6.4 14.5 0.00 0.36 0.36 85 1012.1
20260903184827 27 334 6.4 14.5 0.00 0.36 0.36 85 1012.1
20260903184725 27 358 6.4 11.3 0.00 0.36 0.36 85 1012.1
20260903184625 27 338 6.4 11.3 0.00 0.36 0.36 84 1012.2
20260903184526 27 355 6.4 16.1 0.00 0.36 0.36 84 1012.1
20260903184425 27 0 6.4 16.1 0.00 0.36 0.36 84 1012.1
20260903184325 27 350 6.4 16.1 0.00 0.36 0.36 84 1012.2
20260903184225 27 0 6.4 16.1 0.00 0.36 0.36 84 1012.2
20260903184126 27 331 4.8 16.1 0.00 0.36 0.36 84 1012.3
20260903184026 27 336 6.4 16.1 0.00 0.36 0.36 84 1012.3
20260903183925 27 348 8.0 16.1 0.00 0.36 0.36 83 1012.4
20260903183826 27 305 9.7 16.1 0.00 0.36 0.36 83 1012.4
20260903183725 27 276 11.3 16.1 0.00 0.36 0.36 83 1012.4
20260903183625 27 307 9.7 16.1 0.00 0.36 0.36 84 1012.4
20260903183524 27 292 8.0 16.1 0.00 0.36 0.36 84 1012.5
20260903183426 27 302 8.0 16.1 0.00 0.36 0.36 84 1012.6
20260903183325 27 293 9.7 16.1 0.00 0.36 0.36 84 1012.5
20260903183225 27 300 9.7 17.7 0.00 0.36 0.36 84 1012.6
20260903183125 27 289 9.7 17.7 0.00 0.36 0.36 84 1012.6
20260903183026 27 302 8.0 17.7 0.00 0.36 0.36 85 1012.5
20260903182924 27 296 9.7 17.7 0.00 0.36 0.36 85 1012.5
20260903182824 27 309 9.7 17.7 0.00 0.36 0.36 85 1012.5
20260903182725 27 279 9.7 17.7 0.00 0.36 0.36 85 1012.4
20260903182625 27 288 8.0 17.7 0.00 0.36 0.36 85 1012.4
20260903182524 27 299 6.4 17.7 0.00 0.36 0.36 84 1012.4
20260903182426 27 288 9.7 17.7 0.00 0.36 0.36 84 1012.4
20260903182325 27 295 9.7 17.7 0.00 0.36 0.36 84 1012.3
20260903182224 27 278 8.0 17.7 0.00 0.36 0.36 84 1012.2
20260903182125 27 305 8.0 17.7 0.00 0.36 0.36 84 1012.1
20260903182026 27 283 9.7 17.7 0.00 0.36 0.36 84 1012.1
20260903181925 27 300 9.7 17.7 0.00 0.36 0.36 83 1012.0
20260903181825 27 292 9.7 17.7 0.00 0.36 0.36 84 1012.0
20260903181726 27 299 11.3 17.7 0.00 0.36 0.36 84 1012.1
20260903181624 27 302 11.3 17.7 0.00 0.36 0.36 84 1012.0
20260903181524 27 290 12.9 17.7 0.00 0.36 0.36 84 1012.0
20260903181424 27 290 12.9 17.7 0.00 0.36 0.36 84 1012.1
20260903181325 27 272 9.7 17.7 0.00 0.36 0.36 84 1012.1
20260903181225 27 298 9.7 17.7 0.00 0.36 0.36 84 1012.2
20260903181125 27 327 9.7 20.9 0.00 0.36 0.36 84 1012.2
20260903181026 27 295 9.7 24.1 0.00 0.36 0.36 83 1012.2
20260903180924 27 300 8.0 24.1 0.00 0.36 0.36 83 1012.3
20260903180825 27 299 8.0 24.1 0.00 0.36 0.36 83 1012.3
20260903180725 27 320 9.7 24.1 0.00 0.36 0.36 83 1012.4
20260903180624 27 303 11.3 24.1 0.00 0.36 0.36 82 1012.3
20260903180524 27 289 12.9 24.1 0.00 0.36 0.36 82 1012.4
20260903180424 27 300 12.9 24.1 0.00 0.36 0.36 81 1012.4
20260903180325 27 310 14.5 24.1 0.00 0.36 0.36 81 1012.6
20260903180225 27 0 17.7 24.1 0.00 0.36 0.36 81 1012.6
20260903180124 28 152 14.5 24.1 0.00 0.36 0.36 82 1012.6
20260903180025 28 149 9.7 14.5 0.00 0.36 0.36 83 1012.6
20260903175925 28 0 8.0 14.5 0.00 0.36 0.36 83 1012.6
20260903175825 28 0 9.7 14.5 0.00 0.36 0.36 83 1012.6
20260903175723 28 0 9.7 16.1 0.00 0.36 0.36 83 1012.6
20260903175625 28 0 8.0 16.1 0.00 0.36 0.36 83 1012.6
20260903175524 28 161 6.4 16.1 0.00 0.36 0.36 83 1012.5
20260903175424 28 0 6.4 16.1 0.00 0.36 0.36 83 1012.5
20260903175325 28 0 4.8 17.7 0.00 0.36 0.36 84 1012.4
20260903175223 28 0 4.8 17.7 0.00 0.36 0.36 84 1012.4
20260903175124 28 0 8.0 17.7 0.00 0.36 0.36 84 1012.5
20260903175023 28 0 9.7 17.7 0.00 0.36 0.36 83 1012.5
20260903174926 28 353 9.7 17.7 0.00 0.36 0.36 84 1012.5
20260903174823 29 316 9.7 20.9 0.00 0.36 0.36 84 1012.5
20260903174724 29 334 8.0 20.9 0.00 0.36 0.36 85 1012.6
20260903174623 29 336 8.0 20.9 0.00 0.36 0.36 85 1012.6
20260903174524 29 357 9.7 20.9 0.00 0.36 0.36 85 1012.6
20260903174424 29 0 11.3 20.9 0.00 0.36 0.36 84 1012.7
20260903174324 30 348 9.7 20.9 0.00 0.36 0.36 84 1012.7
20260903174225 30 344 8.0 20.9 0.00 0.36 0.36 84 1012.7
20260903174124 30 347 8.0 20.9 0.00 0.36 0.36 83 1012.7
20260903174023 30 343 11.3 20.9 0.00 0.36 0.36 83 1012.8
20260903173924 30 0 11.3 20.9 0.00 0.36 0.36 82 1012.9
20260903173825 30 314 9.7 20.9 0.00 0.36 0.36 82 1012.9
20260903173723 31 329 8.0 14.5 0.00 0.36 0.36 82 1012.8
20260903173623 31 341 8.0 14.5 0.00 0.36 0.36 82 1012.9
20260903173525 31 341 8.0 14.5 0.00 0.36 0.36 81 1012.9
20260903173424 31 0 8.0 14.5 0.00 0.36 0.36 81 1012.9
20260903173323 31 0 9.7 14.5 0.00 0.36 0.36 80 1012.9
20260903173225 31 0 9.7 14.5 0.00 0.36 0.36 79 1012.8
20260903173124 31 13 8.0 11.3 0.00 0.36 0.36 79 1012.8
20260903173023 31 20 4.8 8.0 0.00 0.36 0.36 78 1012.8
20260903172923 31 42 4.8 8.0 0.00 0.36 0.36 78 1012.8
20260903172825 31 59 6.4 8.0 0.00 0.36 0.36 78 1012.8
20260903172724 31 31 6.4 9.7 0.00 0.36 0.36 78 1012.7
20260903172623 31 31 6.4 9.7 0.00 0.36 0.36 78 1012.7
20260903172524 31 20 3.2 9.7 0.00 0.36 0.36 78 1012.6
20260903172424 31 31 3.2 9.7 0.00 0.36 0.36 76 1012.7
20260903172323 31 31 1.6 11.3 0.00 0.36 0.36 76 1012.7
20260903172224 31 31 1.6 14.5 0.00 0.36 0.36 77 1012.6
20260903172123 32 34 6.4 14.5 0.00 0.36 0.36 77 1012.5
20260903172024 32 59 6.4 16.1 0.00 0.36 0.36 77 1012.4
20260903171903 32 59 6.4 16.1 0.00 0.36 0.36 77 1012.4
20260903171803 32 73 6.4 17.7 0.00 0.36 0.36 77 1012.3
20260903171703 32 80 4.8 17.7 0.00 0.36 0.36 78 1012.3
20260903171603 32 68 4.8 17.7 0.00 0.36 0.36 78 1012.2
20260903171502 32 63 6.4 17.7 0.00 0.36 0.36 78 1012.2
20260903171403 32 37 8.0 17.7 0.00 0.36 0.36 79 1012.2
20260903171302 31 55 9.7 17.7 0.00 0.36 0.36 79 1012.1
20260903171203 31 47 11.3 17.7 0.00 0.36 0.36 79 1012.1
20260903171104 31 59 11.3 17.7 0.00 0.36 0.36 81 1012.2
20260903171004 31 66 12.9 19.3 0.00 0.36 0.36 81 1012.2
20260903170903 31 90 11.3 19.3 0.00 0.36 0.36 82 1012.3
20260903170802 31 86 9.7 19.3 0.00 0.36 0.36 82 1012.3
20260903170702 31 78 9.7 19.3 0.00 0.36 0.36 83 1012.4
20260903170602 31 83 9.7 19.3 0.00 0.36 0.36 83 1012.4
20260903170502 30 96 11.3 19.3 0.00 0.36 0.36 83 1012.4
20260903170402 30 90 11.3 19.3 0.00 0.36 0.36 83 1012.5
20260903170303 30 93 11.3 19.3 0.00 0.36 0.36 83 1012.5
20260903170203 30 73 11.3 19.3 0.00 0.36 0.36 83 1012.6
20260903170003 30 93 6.4 17.7 0.00 0.36 0.36 84 1012.6
20260903165902 30 99 8.0 17.7 0.00 0.36 0.36 84 1012.5
20260903165802 30 111 9.7 17.7 0.00 0.36 0.36 84 1012.6
20260903165701 30 97 11.3 17.7 0.00 0.36 0.36 85 1012.5
20260903165602 30 102 9.7 17.7 0.00 0.36 0.36 86 1012.6
20260903165503 30 111 9.7 17.7 0.00 0.36 0.36 86 1012.5
20260903165404 30 117 11.3 17.7 0.00 0.36 0.36 87 1012.5
20260903165305 30 99 11.3 17.7 0.00 0.36 0.36 87 1012.6
20260903165202 30 78 11.3 17.7 0.00 0.36 0.36 87 1012.6
20260903165102 30 100 11.3 17.7 0.00 0.36 0.36 87 1012.5
20260903165004 30 93 11.3 17.7 0.00 0.36 0.36 87 1012.7
20260903164903 30 75 12.9 17.7 0.00 0.36 0.36 88 1012.6
20260903164803 30 97 12.9 17.7 0.00 0.36 0.36 88 1012.7
20260903164703 30 87 11.3 16.1 0.00 0.36 0.36 88 1012.7
20260903164602 30 96 11.3 16.1 0.00 0.36 0.36 88 1012.7
20260903164504 30 90 9.7 16.1 0.00 0.36 0.36 89 1012.7
20260903164402 29 63 9.7 16.1 0.00 0.36 0.36 89 1012.7
20260903164303 29 49 9.7 16.1 0.00 0.36 0.36 89 1012.7
20260903164203 29 59 11.3 19.3 0.00 0.36 0.36 89 1012.7
20260903164102 29 63 9.7 19.3 0.00 0.36 0.36 89 1012.7
20260903164004 29 111 9.7 19.3 0.00 0.36 0.36 89 1012.6
20260903163903 29 86 9.7 19.3 0.00 0.36 0.36 89 1012.7
20260903163803 29 99 9.7 19.3 0.00 0.36 0.36 88 1012.7
20260903163704 29 80 16.1 19.3 0.00 0.36 0.36 88 1012.7
20260903163603 29 80 16.1 19.3 0.00 0.36 0.36 88 1012.7
20260903163503 29 80 16.1 19.3 0.00 0.36 0.36 88 1012.7
20260903163403 29 80 16.1 19.3 0.00 0.36 0.36 88 1012.8
20260903163303 29 80 16.1 19.3 0.00 0.36 0.36 88 1012.7
20260903163202 29 96 14.5 20.9 0.00 0.36 0.36 88 1012.7
20260903163102 29 87 14.5 20.9 0.00 0.36 0.36 88 1012.8
20260903163003 29 82 14.5 20.9 0.00 0.36 0.36 88 1012.7
20260903162901 29 78 12.9 20.9 0.00 0.36 0.36 87 1012.8
20260903162802 30 89 12.9 20.9 0.00 0.36 0.36 87 1012.8
20260903162702 30 79 12.9 20.9 0.00 0.36 0.36 87 1012.7
20260903162603 30 80 12.9 20.9 0.00 0.36 0.36 87 1012.8
20260903162502 30 49 14.5 20.9 0.00 0.36 0.36 86 1012.8
20260903162403 30 79 14.5 20.9 0.00 0.36 0.36 86 1012.8
20260903162306 30 85 14.5 20.9 0.00 0.36 0.36 86 1012.7
20260903162203 30 87 9.7 19.3 0.00 0.36 0.36 86 1012.7
20260903162102 30 90 11.3 17.7 0.00 0.36 0.36 86 1012.7
20260903162003 30 58 11.3 17.7 0.00 0.36 0.36 85 1012.7
20260903161903 30 62 11.3 17.7 0.00 0.36 0.36 85 1012.7
20260903161802 30 71 11.3 17.7 0.00 0.36 0.36 84 1012.8
20260903161702 30 69 11.3 17.7 0.00 0.36 0.36 84 1012.7
20260903161602 30 76 12.9 17.7 0.00 0.36 0.36 84 1012.7
20260903161503 30 90 12.9 17.7 0.00 0.36 0.36 85 1012.6
20260903161403 30 78 9.7 16.1 0.00 0.36 0.36 85 1012.7
20260903161303 30 90 6.4 14.5 0.00 0.36 0.36 85 1012.7
20260903161203 30 100 8.0 14.5 0.00 0.36 0.36 85 1012.7
20260903161102 30 102 9.7 14.5 0.00 0.36 0.36 85 1012.7
20260903161004 30 94 8.0 14.5 0.00 0.36 0.36 85 1012.7
20260903160902 30 157 8.0 14.5 0.00 0.36 0.36 85 1012.7
20260903160803 30 97 8.0 11.3 0.00 0.36 0.36 85 1012.7
20260903160703 30 110 8.0 11.3 0.00 0.36 0.36 85 1012.8
20260903160603 30 99 6.4 11.3 0.00 0.36 0.36 85 1012.6
20260903160502 30 107 3.2 11.3 0.00 0.36 0.36 84 1012.6
20260903160402 30 103 4.8 11.3 0.00 0.36 0.36 84 1012.6
20260903160302 30 109 9.7 11.3 0.00 0.36 0.36 83 1012.6
20260903160202 30 125 9.7 11.3 0.00 0.36 0.36 84 1012.7
20260903160005 30 90 6.4 14.5 0.00 0.36 0.36 84 1012.6
20260903155903 30 87 4.8 14.5 0.00 0.36 0.36 84 1012.5
20260903155802 30 179 4.8 14.5 0.00 0.36 0.36 84 1012.5
20260903155702 30 133 4.8 14.5 0.00 0.36 0.36 84 1012.5
20260903155603 30 157 6.4 14.5 0.00 0.36 0.36 84 1012.5
20260903155503 30 134 8.0 14.5 0.00 0.36 0.36 84 1012.5
20260903155403 30 113 8.0 14.5 0.00 0.36 0.36 84 1012.5
20260903155306 30 110 9.7 14.5 0.00 0.36 0.36 85 1012.5
20260903155201 30 110 8.0 14.5 0.00 0.36 0.36 85 1012.5
20260903155103 30 103 6.4 11.3 0.00 0.36 0.36 85 1012.4
20260903155004 30 78 6.4 9.7 0.00 0.36 0.36 85 1012.4
20260903154903 30 145 4.8 9.7 0.00 0.36 0.36 86 1012.4
20260903154803 30 131 1.6 8.0 0.00 0.36 0.36 87 1012.4
20260903154703 30 106 1.6 6.4 0.00 0.36 0.36 86 1012.4
20260903154602 30 106 3.2 6.4 0.00 0.36 0.36 86 1012.4
20260903154505 30 103 3.2 6.4 0.00 0.36 0.36 87 1012.4
20260903154403 30 97 1.6 6.4 0.00 0.36 0.36 87 1012.3
20260903154302 30 104 0.0 6.4 0.00 0.36 0.36 87 1012.4
20260903154204 29 130 0.0 6.4 0.00 0.36 0.36 88 1012.3
20260903154103 29 130 0.0 6.4 0.00 0.36 0.36 88 1012.4
20260903154004 29 123 0.0 6.4 0.00 0.36 0.36 88 1012.4
20260903153902 28 123 0.0 6.4 0.00 0.36 0.36 92 1012.3
20260903153803 28 65 1.6 6.4 0.00 0.36 0.36 92 1012.3
20260903153703 28 65 1.6 6.4 0.00 0.36 0.36 92 1012.3
20260903153604 28 65 1.6 6.4 0.00 0.36 0.36 92 1012.3
20260903153503 28 65 1.6 6.4 0.00 0.36 0.36 92 1012.3
20260903153330 28 63 1.6 4.8 0.00 0.36 0.36 92 1012.3
20260903153230 28 38 0.0 1.6 0.00 0.36 0.36 91 1012.3
20260903153133 28 27 0.0 1.6 0.00 0.36 0.36 92 1012.3
20260903153031 28 25 0.0 1.6 0.00 0.36 0.36 92 1012.3
20260903152932 28 25 0.0 1.6 0.00 0.36 0.36 92 1012.4
20260903152831 28 25 0.0 1.6 0.00 0.36 0.36 93 1012.4
20260903152732 28 25 0.0 0.0 0.00 0.36 0.36 93 1012.3
20260903152631 28 27 0.0 0.0 0.00 0.36 0.36 93 1012.3
20260903152531 28 27 0.0 1.6 0.00 0.36 0.36 94 1012.3
20260903152432 28 25 0.0 1.6 0.00 0.36 0.36 95 1012.3
20260903152332 28 24 0.0 1.6 0.03 0.36 0.36 95 1012.4
20260903152231 28 24 0.0 1.6 0.03 0.36 0.36 94 1012.4
20260903152131 28 37 0.0 3.2 0.03 0.36 0.36 94 1012.4
20260903152031 28 38 0.0 3.2 0.03 0.36 0.36 95 1012.4
20260903151933 28 38 0.0 3.2 0.03 0.36 0.36 94 1012.3
20260903151831 28 38 0.0 3.2 0.05 0.36 0.36 94 1012.4
20260903151731 27 38 0.0 3.2 0.05 0.36 0.36 94 1012.3
20260903151632 28 38 1.6 3.2 0.05 0.36 0.36 95 1012.4
20260903151532 28 38 0.0 3.2 0.05 0.36 0.36 95 1012.4
20260903151431 28 38 0.0 3.2 0.05 0.36 0.36 95 1012.4
20260903151332 28 38 1.6 3.2 0.05 0.36 0.36 95 1012.4
20260903151231 27 38 1.6 3.2 0.05 0.36 0.36 95 1012.5
20260903151131 27 38 0.0 1.6 0.05 0.36 0.36 94 1012.4
20260903151031 27 38 0.0 1.6 0.05 0.36 0.36 95 1012.5
20260903150930 27 38 0.0 1.6 0.05 0.36 0.36 94 1012.5
20260903150832 27 38 0.0 1.6 0.05 0.36 0.36 95 1012.5
20260903150731 27 38 0.0 1.6 0.05 0.36 0.36 94 1012.5
20260903150632 27 38 0.0 1.6 0.05 0.36 0.36 94 1012.5
20260903150532 27 38 0.0 1.6 0.05 0.36 0.36 95 1012.5
20260903150430 27 38 0.0 1.6 0.05 0.36 0.36 94 1012.5
20260903150331 27 38 0.0 1.6 0.05 0.36 0.36 94 1012.5
20260903150231 27 38 0.0 1.6 0.05 0.36 0.36 94 1012.5
20260903150132 27 38 0.0 1.6 0.05 0.36 0.36 94 1012.5
20260903150031 27 38 1.6 1.6 0.05 0.36 0.36 95 1012.5
20260903145932 27 38 0.0 0.0 0.05 0.30 0.36 94 1012.5
20260903145832 27 38 0.0 0.0 0.05 0.30 0.36 94 1012.6
20260903145731 27 38 0.0 1.6 0.05 0.30 0.36 94 1012.5
20260903145632 27 38 0.0 3.2 0.05 0.30 0.36 94 1012.6
20260903145532 27 38 0.0 3.2 0.05 0.30 0.36 94 1012.6
20260903145432 27 38 0.0 3.2 0.05 0.30 0.36 94 1012.6
20260903145331 27 38 0.0 3.2 0.05 0.30 0.36 95 1012.6
20260903145229 27 38 0.0 3.2 0.05 0.30 0.36 95 1012.7
20260903145127 27 38 0.0 4.8 0.05 0.30 0.36 95 1012.6
20260903145025 27 38 0.0 6.4 0.05 0.30 0.36 94 1012.7
20260903144921 27 38 0.0 6.4 0.05 0.30 0.36 94 1012.7
20260903144820 27 38 1.6 6.4 0.05 0.30 0.36 94 1012.7
20260903144721 27 38 1.6 6.4 0.05 0.30 0.36 94 1012.7
20260903144620 27 38 1.6 6.4 0.05 0.30 0.36 94 1012.8
20260903144521 27 38 1.6 6.4 0.05 0.30 0.36 94 1012.7
20260903144419 27 38 1.6 6.4 0.05 0.30 0.36 94 1012.7
20260903144320 27 38 3.2 6.4 0.05 0.30 0.36 94 1012.7
20260903144221 27 38 4.8 6.4 0.05 0.30 0.36 94 1012.8
20260903144120 27 38 4.8 6.4 0.05 0.30 0.36 94 1012.8
20260903144021 27 45 4.8 6.4 0.05 0.30 0.36 94 1012.9
20260903143921 27 45 4.8 9.7 0.05 0.30 0.36 94 1012.9
20260903143820 27 45 4.8 9.7 0.05 0.30 0.36 94 1012.8
20260903143721 27 45 4.8 9.7 0.05 0.30 0.36 94 1012.9
20260903143619 27 45 4.8 9.7 0.05 0.30 0.36 94 1012.8
20260903143520 27 45 4.8 9.7 0.05 0.30 0.36 94 1012.9
20260903143420 27 45 4.8 9.7 0.05 0.30 0.36 94 1012.9
20260903143319 27 56 4.8 9.7 0.05 0.30 0.36 94 1012.9
20260903143220 27 56 4.8 11.3 0.05 0.30 0.36 94 1012.9
20260903143121 27 55 6.4 14.5 0.05 0.30 0.36 93 1012.9
20260903143019 27 82 6.4 14.5 0.05 0.30 0.36 94 1012.9
20260903142919 27 93 6.4 14.5 0.05 0.30 0.36 94 1012.9
20260903142820 27 73 6.4 14.5 0.05 0.30 0.36 94 1012.8
20260903142720 27 83 6.4 14.5 0.05 0.30 0.36 94 1012.9
20260903142619 27 92 8.0 14.5 0.05 0.30 0.36 94 1012.8
20260903142518 27 75 8.0 14.5 0.05 0.30 0.36 94 1013.0
20260903142416 27 89 6.4 14.5 0.05 0.30 0.36 94 1013.0
20260903142314 27 93 8.0 14.5 0.03 0.30 0.33 94 1013.0
20260903142214 27 106 8.0 14.5 0.03 0.30 0.33 94 1013.0
20260903142108 27 97 6.4 9.7 0.03 0.30 0.33 94 1013.0
20260903142009 27 99 6.4 9.7 0.03 0.30 0.33 94 1012.9
20260903141908 27 103 4.8 9.7 0.03 0.30 0.30 94 1013.0
20260903141806 27 104 3.2 9.7 0.00 0.30 0.30 94 1013.0
20260903141703 27 118 4.8 9.7 0.00 0.30 0.30 94 1013.0
20260903141605 27 117 6.4 9.7 0.00 0.30 0.30 94 1013.0
20260903141503 27 97 6.4 9.7 0.00 0.30 0.30 94 1013.0
20260903141401 27 96 6.4 8.0 0.00 0.30 0.30 94 1013.0
20260903141302 27 94 8.0 8.0 0.00 0.30 0.30 94 1013.0
20260903141203 27 93 6.4 8.0 0.00 0.30 0.30 94 1013.0
20260903141102 27 92 4.8 8.0 0.00 0.30 0.30 95 1012.9
20260903141003 27 107 4.8 8.0 0.00 0.30 0.30 95 1012.9
20260903140902 27 93 6.4 8.0 0.00 0.30 0.30 95 1013.0
20260903140803 27 93 6.4 8.0 0.00 0.30 0.30 95 1012.9
20260903140703 27 93 6.4 8.0 0.00 0.30 0.30 95 1013.0
20260903140603 27 93 6.4 8.0 0.00 0.30 0.30 95 1013.0
20260903140502 27 66 4.8 6.4 0.00 0.30 0.30 95 1013.0
20260903140403 27 63 4.8 6.4 0.00 0.30 0.30 95 1013.0
20260903140303 27 56 4.8 6.4 0.00 0.30 0.30 95 1013.0
20260903140203 27 56 6.4 6.4 0.00 0.30 0.30 95 1012.9
20260903140004 27 52 4.8 6.4 0.00 0.30 0.30 95 1012.9
20260903135903 27 52 4.8 6.4 0.00 0.30 0.30 94 1012.9
20260903135804 27 52 3.2 4.8 0.00 0.30 0.30 94 1012.8
20260903135702 27 52 3.2 4.8 0.00 0.30 0.30 94 1012.8
20260903135602 27 52 3.2 4.8 0.00 0.30 0.30 94 1012.8
20260903135502 27 52 3.2 3.2 0.00 0.30 0.30 94 1012.8
20260903135403 27 52 0.0 1.6 0.00 0.30 0.30 94 1012.8
20260903135306 27 52 0.0 1.6 0.00 0.30 0.30 94 1012.8
20260903135203 27 52 0.0 1.6 0.00 0.30 0.30 94 1012.8
20260903135103 27 52 0.0 1.6 0.00 0.30 0.30 94 1012.8
20260903135003 27 52 0.0 1.6 0.00 0.30 0.30 94 1012.8
20260903134902 27 52 0.0 1.6 0.00 0.30 0.30 94 1012.7
20260903134802 27 52 0.0 1.6 0.00 0.30 0.30 94 1012.7
20260903134703 27 52 0.0 1.6 0.00 0.30 0.30 94 1012.7
20260903134603 27 52 0.0 1.6 0.00 0.30 0.30 94 1012.7
20260903134503 27 52 0.0 0.0 0.00 0.30 0.30 94 1012.7
20260903134403 27 52 0.0 3.2 0.00 0.30 0.30 94 1012.6
20260903134301 27 52 0.0 3.2 0.00 0.30 0.30 94 1012.6
20260903134204 27 52 0.0 6.4 0.00 0.30 0.30 94 1012.7
20260903134103 27 52 0.0 6.4 0.00 0.30 0.30 94 1012.7
20260903134002 27 52 0.0 6.4 0.00 0.30 0.30 94 1012.6
20260903133903 27 52 0.0 6.4 0.00 0.30 0.30 94 1012.7
20260903133802 27 52 0.0 6.4 0.00 0.30 0.30 94 1012.6
20260903133704 27 52 0.0 6.4 0.00 0.30 0.30 94 1012.7
20260903133603 27 52 0.0 6.4 0.00 0.30 0.30 94 1012.7
20260903133503 27 52 1.6 6.4 0.00 0.30 0.30 94 1012.8
20260903133402 27 52 3.2 6.4 0.00 0.30 0.30 94 1012.8
20260903133303 27 52 4.8 6.4 0.00 0.30 0.30 94 1012.8
20260903133203 27 51 4.8 6.4 0.00 0.30 0.30 94 1012.8
20260903133103 27 51 4.8 6.4 0.00 0.30 0.30 94 1012.9
20260903133003 27 51 4.8 6.4 0.00 0.30 0.30 94 1012.9
20260903132903 27 51 4.8 6.4 0.00 0.30 0.30 94 1012.8
20260903132803 27 49 4.8 4.8 0.00 0.30 0.30 94 1012.8
20260903132704 27 49 4.8 4.8 0.00 0.30 0.30 94 1012.9
20260903132603 27 49 4.8 4.8 0.00 0.30 0.30 94 1012.9
20260903132503 27 49 4.8 6.4 0.00 0.30 0.30 94 1013.0
20260903132403 27 49 4.8 6.4 0.00 0.30 0.30 94 1013.0
20260903132306 27 49 4.8 6.4 0.00 0.30 0.30 94 1012.9
20260903132203 27 49 4.8 6.4 0.00 0.30 0.30 94 1012.9
20260903132104 27 49 4.8 6.4 0.00 0.30 0.30 94 1012.9
20260903132005 27 49 4.8 6.4 0.00 0.30 0.30 94 1012.9
20260903131902 27 49 3.2 6.4 0.00 0.30 0.30 94 1012.8
20260903131802 27 49 3.2 6.4 0.00 0.30 0.30 93 1012.8
20260903131702 27 85 4.8 6.4 0.00 0.30 0.30 93 1012.9
20260903131604 27 85 4.8 6.4 0.00 0.30 0.30 94 1012.9
20260903131504 27 85 3.2 6.4 0.00 0.30 0.30 94 1012.9
20260903131404 27 85 4.8 6.4 0.00 0.30 0.30 94 1012.8
20260903131259 27 85 4.8 6.4 0.00 0.30 0.30 94 1012.8
20260903131159 27 85 4.8 6.4 0.00 0.30 0.30 93 1012.8
20260903131057 27 83 3.2 6.4 0.00 0.30 0.30 93 1012.7
20260903130954 27 82 3.2 4.8 0.00 0.30 0.30 93 1012.7
20260903130851 27 82 3.2 4.8 0.00 0.30 0.30 93 1012.7
20260903130748 27 82 3.2 4.8 0.00 0.30 0.30 93 1012.7
20260903130649 27 82 3.2 4.8 0.00 0.30 0.30 94 1012.6
20260903130543 27 80 0.0 3.2 0.00 0.30 0.30 94 1012.6
20260903130442 27 80 0.0 0.0 0.00 0.30 0.30 94 1012.5
20260903130337 27 80 0.0 0.0 0.00 0.30 0.30 94 1012.4
20260903130234 27 80 0.0 0.0 0.00 0.30 0.30 94 1012.4
20260903130132 27 80 0.0 0.0 0.00 0.30 0.30 93 1012.4
20260903130034 27 80 0.0 0.0 0.00 0.30 0.30 94 1012.4
20260903125931 27 80 0.0 0.0 0.00 0.30 0.30 94 1012.3
20260903125831 27 80 0.0 0.0 0.00 0.30 0.30 93 1012.3
20260903125733 27 80 0.0 1.6 0.03 0.30 0.30 93 1012.3
20260903125632 27 80 0.0 3.2 0.03 0.30 0.30 93 1012.3
20260903125531 27 80 0.0 3.2 0.03 0.30 0.30 93 1012.3
20260903125431 27 80 0.0 3.2 0.03 0.30 0.30 93 1012.3
20260903125331 27 80 0.0 3.2 0.03 0.30 0.30 93 1012.3
20260903125232 27 80 0.0 3.2 0.03 0.30 0.30 93 1012.3
20260903125131 27 80 0.0 3.2 0.03 0.30 0.30 93 1012.3
20260903125033 27 80 0.0 3.2 0.03 0.30 0.30 93 1012.3
20260903124931 27 80 0.0 3.2 0.03 0.30 0.30 93 1012.4
20260903124831 27 80 1.6 3.2 0.03 0.30 0.30 93 1012.4
20260903124732 27 80 1.6 3.2 0.03 0.30 0.30 93 1012.4
20260903124632 27 80 0.0 1.6 0.03 0.30 0.30 93 1012.3
20260903124532 27 80 0.0 3.2 0.03 0.30 0.30 93 1012.4
20260903124432 27 80 0.0 3.2 0.03 0.30 0.30 93 1012.3
20260903124332 27 80 0.0 3.2 0.03 0.30 0.30 93 1012.4
20260903124233 27 80 0.0 4.8 0.03 0.30 0.30 93 1012.4
20260903124132 27 80 0.0 4.8 0.03 0.30 0.30 93 1012.3
20260903124032 27 80 0.0 4.8 0.05 0.30 0.30 93 1012.4
20260903123932 27 80 0.0 4.8 0.05 0.30 0.30 93 1012.3
20260903123832 27 80 0.0 6.4 0.05 0.30 0.30 93 1012.3
20260903123731 27 80 1.6 6.4 0.05 0.30 0.30 93 1012.4
20260903123632 27 80 3.2 6.4 0.05 0.30 0.30 93 1012.3
20260903123532 27 80 3.2 6.4 0.05 0.30 0.30 93 1012.3
20260903123432 27 79 3.2 6.4 0.05 0.30 0.30 93 1012.3
20260903123331 27 79 3.2 6.4 0.08 0.30 0.30 93 1012.3
20260903123230 27 79 3.2 6.4 0.08 0.30 0.30 93 1012.2
20260903123132 27 79 3.2 6.4 0.08 0.30 0.30 93 1012.2
20260903123031 27 79 4.8 6.4 0.08 0.30 0.30 93 1012.1
20260903122932 27 79 4.8 6.4 0.10 0.30 0.30 93 1012.2
20260903122831 27 102 3.2 6.4 0.10 0.30 0.30 93 1012.1
20260903122730 27 103 3.2 6.4 0.13 0.30 0.30 93 1012.0
20260903122631 27 103 4.8 6.4 0.13 0.30 0.30 93 1012.1
20260903122532 27 107 4.8 6.4 0.15 0.30 0.30 93 1012.1
20260903122431 27 103 3.2 6.4 0.15 0.30 0.30 93 1012.1
20260903122331 27 103 3.2 6.4 0.18 0.30 0.30 93 1012.0
20260903122231 27 97 3.2 6.4 0.18 0.30 0.30 93 1012.0
20260903122131 27 94 3.2 6.4 0.20 0.30 0.30 93 1012.0
20260903122031 27 137 1.6 6.4 0.23 0.30 0.30 93 1011.9
20260903121931 27 149 3.2 8.0 0.23 0.30 0.30 93 1011.8
20260903121833 27 161 3.2 9.7 0.25 0.30 0.30 93 1011.8
20260903121732 27 128 3.2 14.5 0.25 0.30 0.30 93 1011.8
20260903121633 27 127 3.2 14.5 0.25 0.30 0.30 93 1011.8
20260903121532 27 161 3.2 14.5 0.25 0.30 0.30 93 1011.7
20260903121432 27 147 3.2 14.5 0.28 0.30 0.30 93 1011.7
20260903121331 27 131 3.2 14.5 0.28 0.30 0.30 93 1011.7
20260903121231 27 138 3.2 14.5 0.28 0.30 0.30 93 1011.7
20260903121131 27 149 4.8 14.5 0.28 0.30 0.30 93 1011.6
20260903121031 27 135 6.4 14.5 0.28 0.30 0.30 93 1011.6
20260903120931 27 145 4.8 14.5 0.28 0.30 0.30 93 1011.6
20260903120831 27 148 3.2 14.5 0.30 0.30 0.30 93 1011.5
20260903120731 27 93 1.6 8.0 0.30 0.30 0.30 93 1011.6
20260903120632 27 93 1.6 8.0 0.30 0.30 0.30 93 1011.6
20260903120531 27 93 1.6 8.0 0.30 0.30 0.30 93 1011.6
20260903120432 27 110 1.6 8.0 0.30 0.30 0.30 93 1011.7
20260903120331 27 130 3.2 8.0 0.30 0.30 0.30 93 1011.7
20260903120233 27 130 3.2 8.0 0.30 0.30 0.30 93 1011.7
20260903120131 27 94 4.8 8.0 0.30 0.30 0.30 93 1011.8
20260903120032 27 94 4.8 8.0 0.30 0.30 0.30 93 1011.8
20260903115933 27 96 3.2 8.0 0.30 0.00 0.30 93 1011.8
20260903115832 27 48 3.2 8.0 0.30 0.00 0.28 93 1011.9
20260903115732 27 48 3.2 8.0 0.28 0.00 0.28 92 1011.9
20260903115631 27 47 4.8 8.0 0.28 0.00 0.28 92 1011.8
20260903115533 27 47 4.8 8.0 0.28 0.00 0.28 92 1011.9
20260903115431 27 47 4.8 8.0 0.28 0.00 0.28 92 1011.9
20260903115332 27 47 4.8 8.0 0.28 0.00 0.28 92 1011.9
20260903115230 27 47 6.4 8.0 0.28 0.00 0.28 92 1011.9
20260903115132 27 45 6.4 8.0 0.28 0.00 0.28 92 1011.9
20260903115032 27 41 6.4 8.0 0.28 0.00 0.28 92 1011.9
20260903114932 27 35 6.4 8.0 0.28 0.00 0.28 92 1011.9
20260903114830 27 45 6.4 8.0 0.28 0.00 0.28 92 1011.8
20260903114733 27 45 6.4 8.0 0.28 0.00 0.28 92 1011.8
20260903114632 27 45 4.8 6.4 0.28 0.00 0.28 92 1011.8
20260903114532 27 45 4.8 6.4 0.28 0.00 0.28 91 1011.8
20260903114431 27 45 4.8 6.4 0.28 0.00 0.28 91 1011.7
20260903114331 27 58 3.2 8.0 0.28 0.00 0.28 91 1011.8
20260903114227 27 120 3.2 8.0 0.28 0.00 0.25 91 1011.6
20260903114127 27 121 1.6 16.1 0.28 0.00 0.25 91 1011.6
20260903114025 27 121 1.6 16.1 0.25 0.00 0.25 91 1011.6
20260903113923 27 121 3.2 16.1 0.25 0.00 0.25 91 1011.6
20260903113822 27 121 3.2 16.1 0.25 0.00 0.25 91 1011.5
20260903113720 27 123 1.6 16.1 0.25 0.00 0.25 91 1011.6
20260903113619 27 121 3.2 16.1 0.25 0.00 0.25 91 1011.5
20260903113517 27 118 3.2 16.1 0.25 0.00 0.25 90 1011.6
20260903113415 27 162 4.8 16.1 0.25 0.00 0.25 90 1011.5
20260903113314 27 183 6.4 16.1 0.23 0.00 0.23 90 1011.6
20260903113212 27 179 6.4 16.1 0.23 0.00 0.23 90 1011.5
20260903113111 27 158 4.8 11.3 0.23 0.00 0.23 90 1011.5
20260903113012 27 183 4.8 17.7 0.20 0.00 0.20 90 1011.5
20260903112912 27 168 4.8 17.7 0.20 0.00 0.20 90 1011.5
20260903112812 28 166 4.8 17.7 0.20 0.00 0.20 89 1011.4
20260903112712 28 165 6.4 17.7 0.18 0.00 0.18 89 1011.5
20260903112613 28 178 8.0 17.7 0.18 0.00 0.15 89 1011.6
20260903112513 28 243 6.4 17.7 0.15 0.00 0.15 89 1011.6
20260903112412 28 193 6.4 17.7 0.13 0.00 0.13 89 1011.6
20260903112312 28 183 8.0 17.7 0.13 0.00 0.10 89 1011.6
20260903112211 28 195 9.7 17.7 0.13 0.00 0.10 89 1011.6
20260903112111 28 175 9.7 17.7 0.10 0.00 0.10 89 1011.6
20260903112013 28 178 8.0 16.1 0.08 0.00 0.08 89 1011.6
20260903111912 28 179 9.7 16.1 0.08 0.00 0.08 89 1011.6
20260903111812 28 171 11.3 16.1 0.05 0.00 0.05 88 1011.7
20260903111711 28 193 9.7 16.1 0.05 0.00 0.05 89 1011.7
20260903111611 28 230 6.4 16.1 0.05 0.00 0.05 89 1011.7
20260903111513 28 227 8.0 16.1 0.05 0.00 0.05 88 1011.7
20260903111411 28 0 6.4 16.1 0.03 0.00 0.03 88 1011.7
20260903111311 28 0 6.4 16.1 0.03 0.00 0.03 88 1011.7
20260903111211 28 237 9.7 16.1 0.03 0.00 0.03 88 1011.7
20260903111113 28 238 9.7 16.1 0.03 0.00 0.03 88 1011.7
20260903111011 28 190 9.7 16.1 0.03 0.00 0.03 88 1011.7
20260903110912 28 231 9.7 16.1 0.03 0.00 0.00 88 1011.7
20260903110812 28 257 8.0 11.3 0.00 0.00 0.00 88 1011.8
20260903110712 28 217 6.4 8.0 0.00 0.00 0.00 88 1011.7
20260903110611 28 171 4.8 8.0 0.00 0.00 0.00 88 1011.7
20260903110511 28 183 3.2 8.0 0.00 0.00 0.00 88 1011.7
20260903110412 28 180 3.2 8.0 0.00 0.00 0.00 88 1011.6
20260903110311 28 183 1.6 8.0 0.00 0.00 0.00 88 1011.6
20260903110211 28 134 1.6 8.0 0.00 0.00 0.00 88 1011.6
20260903110113 28 152 3.2 8.0 0.00 0.00 0.00 88 1011.7
20260903110012 28 196 4.8 8.0 0.00 0.00 0.00 88 1011.6
20260903105911 28 190 3.2 8.0 0.00 0.00 0.00 88 1011.6
20260903105812 28 161 1.6 8.0 0.00 0.00 0.00 88 1011.7
20260903105712 28 162 3.2 8.0 0.00 0.00 0.00 88 1011.6
20260903105611 28 188 4.8 8.0 0.00 0.00 0.00 88 1011.6
20260903105512 28 159 3.2 8.0 0.00 0.00 0.00 88 1011.6
20260903105412 28 87 3.2 8.0 0.00 0.00 0.00 88 1011.6
20260903105311 28 154 3.2 6.4 0.00 0.00 0.00 88 1011.6
20260903105211 28 162 3.2 6.4 0.00 0.00 0.00 88 1011.6
20260903105112 28 171 3.2 6.4 0.00 0.00 0.00 88 1011.5
20260903105011 28 189 3.2 8.0 0.00 0.00 0.00 88 1011.6
20260903104911 28 162 1.6 8.0 0.00 0.00 0.00 88 1011.6
20260903104811 28 166 1.6 8.0 0.00 0.00 0.00 88 1011.6
20260903104712 28 165 3.2 8.0 0.00 0.00 0.00 88 1011.6
20260903104611 28 171 3.2 8.0 0.00 0.00 0.00 88 1011.6
20260903104510 28 133 3.2 8.0 0.00 0.00 0.00 88 1011.6
20260903104410 28 165 3.2 8.0 0.00 0.00 0.00 88 1011.5
20260903104311 28 180 4.8 8.0 0.00 0.00 0.00 88 1011.5
20260903104211 28 140 4.8 8.0 0.00 0.00 0.00 88 1011.5
20260903104111 28 148 4.8 8.0 0.00 0.00 0.00 88 1011.5
20260903104012 28 104 3.2 8.0 0.00 0.00 0.00 88 1011.5
20260903103911 28 151 4.8 8.0 0.00 0.00 0.00 88 1011.4
20260903103811 28 134 4.8 8.0 0.00 0.00 0.00 88 1011.5
20260903103711 28 141 4.8 8.0 0.00 0.00 0.00 88 1011.5
20260903103611 28 149 4.8 8.0 0.00 0.00 0.00 88 1011.5
20260903103512 28 179 4.8 8.0 0.00 0.00 0.00 88 1011.4
20260903103411 28 144 4.8 8.0 0.00 0.00 0.00 88 1011.5
20260903103311 28 137 3.2 8.0 0.00 0.00 0.00 88 1011.5
20260903103211 28 128 3.2 8.0 0.00 0.00 0.00 88 1011.5
20260903103111 28 155 3.2 8.0 0.00 0.00 0.00 88 1011.5
20260903103012 28 157 3.2 8.0 0.00 0.00 0.00 88 1011.5
20260903102911 28 159 3.2 8.0 0.00 0.00 0.00 88 1011.4
20260903102809 28 140 1.6 8.0 0.00 0.00 0.00 88 1011.4
20260903102709 28 161 1.6 8.0 0.00 0.00 0.00 88 1011.4
20260903102612 28 158 3.2 8.0 0.00 0.00 0.00 88 1011.4
20260903102511 28 157 3.2 8.0 0.00 0.00 0.00 88 1011.4
20260903102411 28 157 1.6 8.0 0.00 0.00 0.00 88 1011.5
20260903102311 28 144 3.2 8.0 0.00 0.00 0.00 87 1011.5
20260903102211 28 149 3.2 8.0 0.00 0.00 0.00 87 1011.5
20260903102111 28 133 3.2 9.7 0.00 0.00 0.00 87 1011.4
20260903102011 28 130 3.2 9.7 0.00 0.00 0.00 87 1011.4
20260903101912 28 141 1.6 9.7 0.00 0.00 0.00 87 1011.4
20260903101811 28 141 1.6 9.7 0.00 0.00 0.00 87 1011.4
20260903101710 28 158 3.2 9.7 0.00 0.00 0.00 87 1011.4
20260903101611 28 169 3.2 9.7 0.00 0.00 0.00 87 1011.4
20260903101511 28 94 1.6 11.3 0.00 0.00 0.00 87 1011.4
20260903101408 28 128 3.2 11.3 0.00 0.00 0.00 87 1011.4
20260903101304 28 134 4.8 11.3 0.00 0.00 0.00 87 1011.4
20260903101203 28 168 3.2 11.3 0.00 0.00 0.00 87 1011.3
20260903101102 28 148 4.8 11.3 0.00 0.00 0.00 87 1011.3
20260903101004 28 114 4.8 11.3 0.00 0.00 0.00 87 1011.3
20260903100902 28 173 4.8 11.3 0.00 0.00 0.00 87 1011.4
20260903100803 28 147 3.2 11.3 0.00 0.00 0.00 87 1011.3
20260903100703 28 130 4.8 11.3 0.00 0.00 0.00 87 1011.4
20260903100603 28 125 4.8 11.3 0.00 0.00 0.00 87 1011.4
20260903100502 28 172 4.8 9.7 0.00 0.00 0.00 87 1011.3
20260903100402 28 179 3.2 9.7 0.00 0.00 0.00 87 1011.3
20260903100302 28 185 3.2 9.7 0.00 0.00 0.00 87 1011.3
20260903100202 28 128 4.8 11.3 0.00 0.00 0.00 87 1011.3
20260903100004 28 168 6.4 11.3 0.00 0.00 0.00 87 1011.3
20260903095901 28 148 4.8 11.3 0.00 0.00 0.00 87 1011.2
20260903095801 28 199 6.4 11.3 0.00 0.00 0.00 87 1011.3
20260903095703 28 183 4.8 11.3 0.00 0.00 0.00 87 1011.3
20260903095603 28 178 4.8 11.3 0.00 0.00 0.00 87 1011.2
20260903095502 28 192 3.2 11.3 0.00 0.00 0.00 86 1011.3
20260903095404 28 193 4.8 11.3 0.00 0.00 0.00 86 1011.2
20260903095305 28 140 4.8 11.3 0.00 0.00 0.00 86 1011.3
20260903095202 28 207 4.8 11.3 0.00 0.00 0.00 87 1011.2
20260903095102 28 144 6.4 11.3 0.00 0.00 0.00 87 1011.2
20260903095005 28 199 4.8 11.3 0.00 0.00 0.00 87 1011.2
20260903094904 28 186 4.8 11.3 0.00 0.00 0.00 87 1011.3
20260903094801 28 169 4.8 11.3 0.00 0.00 0.00 87 1011.3
20260903094659 28 182 3.2 11.3 0.00 0.00 0.00 87 1011.2
20260903094557 28 169 6.4 11.3 0.00 0.00 0.00 87 1011.2
20260903094456 28 186 6.4 11.3 0.00 0.00 0.00 86 1011.3
20260903094355 28 206 4.8 11.3 0.00 0.00 0.00 86 1011.2
20260903094252 28 125 6.4 9.7 0.00 0.00 0.00 86 1011.2
20260903094151 28 185 6.4 9.7 0.00 0.00 0.00 86 1011.2
20260903094050 28 144 4.8 17.7 0.00 0.00 0.00 86 1011.2
20260903093949 28 141 4.8 17.7 0.00 0.00 0.00 86 1011.3
20260903093846 28 131 4.8 17.7 0.00 0.00 0.00 86 1011.3
20260903093746 28 130 3.2 17.7 0.00 0.00 0.00 86 1011.2
20260903093643 28 111 4.8 17.7 0.00 0.00 0.00 86 1011.2
20260903093542 28 166 4.8 17.7 0.00 0.00 0.00 86 1011.3
20260903093441 28 206 4.8 17.7 0.00 0.00 0.00 86 1011.2
20260903093339 28 169 3.2 17.7 0.00 0.00 0.00 86 1011.3
20260903093234 28 161 6.4 17.7 0.00 0.00 0.00 86 1011.4
20260903093132 28 158 9.7 17.7 0.00 0.00 0.00 86 1011.2
20260903093032 28 128 6.4 14.5 0.00 0.00 0.00 86 1011.3
20260903092932 28 134 4.8 11.3 0.00 0.00 0.00 86 1011.2
20260903092831 28 154 4.8 11.3 0.00 0.00 0.00 87 1011.3
20260903092732 28 171 6.4 11.3 0.00 0.00 0.00 86 1011.3
20260903092631 28 179 4.8 11.3 0.00 0.00 0.00 86 1011.3
20260903092532 28 182 6.4 11.3 0.00 0.00 0.00 87 1011.3
20260903092431 28 168 8.0 11.3 0.00 0.00 0.00 87 1011.3
20260903092331 28 173 6.4 11.3 0.00 0.00 0.00 87 1011.4
20260903092232 28 118 4.8 11.3 0.00 0.00 0.00 87 1011.3
20260903092133 28 140 4.8 11.3 0.00 0.00 0.00 87 1011.3
20260903092031 28 190 6.4 14.5 0.00 0.00 0.00 87 1011.3
20260903091931 28 182 6.4 14.5 0.00 0.00 0.00 87 1011.3
20260903091831 28 190 4.8 14.5 0.00 0.00 0.00 87 1011.3
20260903091731 28 165 6.4 14.5 0.00 0.00 0.00 87 1011.4
20260903091631 28 172 6.4 14.5 0.00 0.00 0.00 87 1011.4
20260903091532 28 179 4.8 16.1 0.00 0.00 0.00 87 1011.3
20260903091433 28 165 4.8 16.1 0.00 0.00 0.00 87 1011.3
20260903091330 28 127 6.4 16.1 0.00 0.00 0.00 87 1011.4
20260903091230 28 227 6.4 16.1 0.00 0.00 0.00 87 1011.3
20260903091131 28 175 6.4 16.1 0.00 0.00 0.00 87 1011.4
20260903091031 28 137 8.0 16.1 0.00 0.00 0.00 87 1011.4
20260903090931 28 173 8.0 16.1 0.00 0.00 0.00 87 1011.4
20260903090833 28 179 4.8 16.1 0.00 0.00 0.00 87 1011.4
20260903090732 28 120 6.4 16.1 0.00 0.00 0.00 87 1011.3
20260903090631 28 166 8.0 16.1 0.00 0.00 0.00 87 1011.4
20260903090532 28 193 6.4 11.3 0.00 0.00 0.00 87 1011.4
20260903090431 28 145 6.4 11.3 0.00 0.00 0.00 87 1011.4
20260903090331 28 107 4.8 11.3 0.00 0.00 0.00 87 1011.4
20260903090230 28 125 3.2 11.3 0.00 0.00 0.00 87 1011.3
20260903090132 28 130 4.8 11.3 0.00 0.00 0.00 87 1011.4
20260903090032 28 152 6.4 11.3 0.00 0.00 0.00 87 1011.3
20260903085932 28 103 4.8 11.3 0.00 0.00 0.00 87 1011.3
20260903085833 28 144 4.8 11.3 0.00 0.00 0.00 87 1011.3
20260903085731 28 138 4.8 14.5 0.00 0.00 0.00 87 1011.3
20260903085631 28 135 4.8 14.5 0.00 0.00 0.00 87 1011.3
20260903085531 28 166 6.4 14.5 0.00 0.00 0.00 87 1011.3
20260903085432 28 147 6.4 14.5 0.00 0.00 0.00 87 1011.3
20260903085332 28 127 4.8 14.5 0.00 0.00 0.00 87 1011.3
20260903085232 28 127 4.8 14.5 0.00 0.00 0.00 87 1011.3
20260903085132 28 127 4.8 14.5 0.00 0.00 0.00 87 1011.2
20260903085032 28 127 4.8 16.1 0.00 0.00 0.00 87 1011.2
20260903084923 28 164 8.0 16.1 0.00 0.00 0.00 87 1011.2
20260903084823 28 118 6.4 16.1 0.00 0.00 0.00 87 1011.2
20260903084721 28 173 4.8 16.1 0.00 0.00 0.00 87 1011.3
20260903084619 28 178 4.8 16.1 0.00 0.00 0.00 87 1011.2
20260903084519 28 133 3.2 16.1 0.00 0.00 0.00 87 1011.2
20260903084416 28 157 4.8 16.1 0.00 0.00 0.00 87 1011.3
20260903084315 28 113 6.4 16.1 0.00 0.00 0.00 87 1011.2
20260903084215 28 116 6.4 16.1 0.00 0.00 0.00 87 1011.3
20260903084114 28 149 6.4 11.3 0.00 0.00 0.00 87 1011.3
20260903084013 28 234 6.4 11.3 0.00 0.00 0.00 87 1011.2
20260903083911 28 141 4.8 14.5 0.00 0.00 0.00 87 1011.2
20260903083809 28 140 3.2 14.5 0.00 0.00 0.00 87 1011.2
20260903083708 28 142 1.6 14.5 0.00 0.00 0.00 87 1011.2
20260903083608 28 164 3.2 16.1 0.00 0.00 0.00 87 1011.2
20260903083508 28 125 6.4 16.1 0.00 0.00 0.00 87 1011.2
20260903083408 28 188 6.4 16.1 0.00 0.00 0.00 87 1011.2
20260903083308 28 157 6.4 16.1 0.00 0.00 0.00 87 1011.3
20260903083209 28 149 6.4 16.1 0.00 0.00 0.00 87 1011.3
20260903083108 28 78 6.4 16.1 0.00 0.00 0.00 87 1011.2
20260903083008 28 159 3.2 16.1 0.00 0.00 0.00 87 1011.2
20260903082908 28 148 4.8 16.1 0.00 0.00 0.00 87 1011.3
20260903082808 28 138 8.0 16.1 0.00 0.00 0.00 87 1011.3
20260903082707 28 210 6.4 16.1 0.00 0.00 0.00 87 1011.3
20260903082607 28 175 3.2 11.3 0.00 0.00 0.00 87 1011.2
20260903082510 28 175 3.2 11.3 0.00 0.00 0.00 87 1011.3
20260903082407 28 171 4.8 11.3 0.00 0.00 0.00 87 1011.2
20260903082310 28 204 4.8 11.3 0.00 0.00 0.00 87 1011.2
20260903082207 28 123 4.8 11.3 0.00 0.00 0.00 87 1011.3
20260903082110 28 178 4.8 11.3 0.00 0.00 0.00 87 1011.3
20260903082009 28 131 6.4 11.3 0.00 0.00 0.00 87 1011.2
20260903081908 28 164 6.4 11.3 0.00 0.00 0.00 87 1011.2
20260903081808 28 199 6.4 11.3 0.00 0.00 0.00 87 1011.2
20260903081707 28 173 6.4 11.3 0.00 0.00 0.00 87 1011.2
20260903081607 28 161 6.4 11.3 0.00 0.00 0.00 86 1011.2
20260903081508 28 134 4.8 11.3 0.00 0.00 0.00 86 1011.2
20260903081410 28 195 3.2 11.3 0.00 0.00 0.00 86 1011.2
20260903081307 28 157 6.4 11.3 0.00 0.00 0.00 86 1011.2
20260903081207 28 164 6.4 11.3 0.00 0.00 0.00 86 1011.2
20260903081108 28 176 3.2 14.5 0.00 0.00 0.00 86 1011.2
20260903081004 28 147 3.2 14.5 0.00 0.00 0.00 86 1011.1
20260903080902 28 149 4.8 14.5 0.00 0.00 0.00 86 1011.2
20260903080804 28 152 3.2 14.5 0.00 0.00 0.00 86 1011.2
20260903080702 28 237 6.4 14.5 0.00 0.00 0.00 86 1011.1
20260903080603 28 154 6.4 16.1 0.00 0.00 0.00 86 1011.2
20260903080503 28 155 6.4 16.1 0.00 0.00 0.00 86 1011.1
20260903080404 28 166 4.8 16.1 0.00 0.00 0.00 86 1011.2
20260903080302 28 186 6.4 16.1 0.00 0.00 0.00 86 1011.2
20260903080203 28 176 6.4 16.1 0.00 0.00 0.00 86 1011.1
20260903080103 28 175 8.0 16.1 0.00 0.00 0.00 86 1011.1
20260903080003 28 193 8.0 19.3 0.00 0.00 0.00 86 1011.1
20260903075903 28 189 8.0 19.3 0.00 0.00 0.00 86 1011.1
20260903075802 28 186 9.7 19.3 0.00 0.00 0.00 86 1011.1
20260903075704 28 176 9.7 19.3 0.00 0.00 0.00 86 1011.1
20260903075602 28 176 9.7 19.3 0.00 0.00 0.00 86 1011.1
20260903075502 28 178 9.7 19.3 0.00 0.00 0.00 86 1011.2
20260903075403 28 195 6.4 19.3 0.00 0.00 0.00 86 1011.2
20260903075306 28 158 6.4 19.3 0.00 0.00 0.00 86 1011.1
20260903075203 28 168 9.7 19.3 0.00 0.00 0.00 86 1011.2
20260903075103 28 193 9.7 19.3 0.00 0.00 0.00 86 1011.2
20260903075005 28 141 9.7 17.7 0.00 0.00 0.00 86 1011.1
20260903074902 28 171 6.4 17.7 0.00 0.00 0.00 86 1011.2
20260903074802 28 199 4.8 14.5 0.00 0.00 0.00 86 1011.1
20260903074704 28 189 6.4 17.7 0.00 0.00 0.00 86 1011.1
20260903074601 28 189 8.0 17.7 0.00 0.00 0.00 86 1011.1
20260903074503 28 183 6.4 17.7 0.00 0.00 0.00 86 1011.1
20260903074403 28 183 6.4 17.7 0.00 0.00 0.00 86 1011.1
20260903074303 28 161 6.4 17.7 0.00 0.00 0.00 86 1011.1
20260903074202 28 123 6.4 17.7 0.00 0.00 0.00 86 1011.1
20260903074102 28 155 8.0 17.7 0.00 0.00 0.00 86 1011.2
20260903074004 28 157 6.4 17.7 0.00 0.00 0.00 86 1011.1
20260903073902 28 109 6.4 17.7 0.00 0.00 0.00 86 1011.0
20260903073802 28 142 6.4 17.7 0.00 0.00 0.00 86 1011.1
20260903073704 28 178 4.8 14.5 0.00 0.00 0.00 86 1011.1
20260903073602 28 135 6.4 14.5 0.00 0.00 0.00 86 1011.1
20260903073501 28 190 8.0 17.7 0.00 0.00 0.00 86 1011.1
20260903073402 28 202 8.0 17.7 0.00 0.00 0.00 86 1011.2
20260903073302 28 161 8.0 19.3 0.00 0.00 0.00 86 1011.1
20260903073202 28 226 9.7 19.3 0.00 0.00 0.00 86 1011.1
20260903073103 28 180 6.4 20.9 0.00 0.00 0.00 86 1011.1
20260903073003 28 193 6.4 20.9 0.00 0.00 0.00 86 1011.2
20260903072903 28 193 6.4 20.9 0.00 0.00 0.00 86 1011.2
20260903072803 28 193 6.4 20.9 0.00 0.00 0.00 86 1011.1
20260903072703 28 200 6.4 20.9 0.00 0.00 0.00 86 1011.2
20260903072603 28 159 6.4 20.9 0.00 0.00 0.00 86 1011.1
20260903072502 28 247 6.4 20.9 0.00 0.00 0.00 86 1011.1
20260903072402 28 151 9.7 20.9 0.00 0.00 0.00 86 1011.1
20260903072306 28 151 11.3 20.9 0.00 0.00 0.00 86 1011.2
20260903072202 28 120 12.9 20.9 0.00 0.00 0.00 86 1011.1
20260903072103 28 173 11.3 20.9 0.00 0.00 0.00 86 1011.2
20260903072004 28 195 9.7 20.9 0.00 0.00 0.00 86 1011.2
20260903071903 28 200 11.3 17.7 0.00 0.00 0.00 86 1011.1
20260903071802 28 175 9.7 17.7 0.00 0.00 0.00 86 1011.1
20260903071702 28 176 9.7 16.1 0.00 0.00 0.00 86 1011.1
20260903071603 28 149 9.7 17.7 0.00 0.00 0.00 86 1011.1
20260903071502 28 197 9.7 17.7 0.00 0.00 0.00 86 1011.2
20260903071401 28 224 9.7 17.7 0.00 0.00 0.00 86 1011.2
20260903071302 28 185 6.4 17.7 0.00 0.00 0.00 86 1011.1
20260903071203 28 86 6.4 17.7 0.00 0.00 0.00 86 1011.2
20260903071101 28 158 6.4 17.7 0.00 0.00 0.00 86 1011.2
20260903071004 28 240 6.4 17.7 0.00 0.00 0.00 86 1011.2
20260903070903 28 138 6.4 17.7 0.00 0.00 0.00 86 1011.1
20260903070802 28 165 9.7 17.7 0.00 0.00 0.00 86 1011.2
20260903070703 28 131 9.7 17.7 0.00 0.00 0.00 86 1011.2
20260903070604 28 147 8.0 17.7 0.00 0.00 0.00 86 1011.3
20260903070502 28 193 6.4 17.7 0.00 0.00 0.00 86 1011.2
20260903070402 28 203 8.0 17.7 0.00 0.00 0.00 86 1011.2
20260903070304 28 164 9.7 17.7 0.00 0.00 0.00 86 1011.2
20260903070203 28 168 9.7 17.7 0.00 0.00 0.00 86 1011.2
20260903070104 28 169 6.4 17.7 0.00 0.00 0.00 86 1011.2
20260903070001 28 134 6.4 17.7 0.00 0.00 0.00 86 1011.3
20260903065903 28 147 8.0 20.9 0.00 0.00 0.00 86 1011.2
20260903065802 28 210 6.4 20.9 0.00 0.00 0.00 86 1011.3
20260903065702 28 168 6.4 20.9 0.00 0.00 0.00 86 1011.4
20260903065604 28 123 6.4 20.9 0.00 0.00 0.00 86 1011.4
20260903065503 28 142 8.0 20.9 0.00 0.00 0.00 86 1011.4
20260903065401 28 204 9.7 20.9 0.00 0.00 0.00 86 1011.4
20260903065305 28 193 9.7 20.9 0.00 0.00 0.00 86 1011.4
20260903065204 28 220 9.7 20.9 0.00 0.00 0.00 86 1011.5
20260903065102 28 168 9.7 20.9 0.00 0.00 0.00 86 1011.5
20260903065002 28 203 9.7 20.9 0.00 0.00 0.00 86 1011.5
20260903064903 28 214 6.4 14.5 0.00 0.00 0.00 86 1011.5
20260903064802 28 164 6.4 14.5 0.00 0.00 0.00 86 1011.5
20260903064701 28 226 8.0 14.5 0.00 0.00 0.00 86 1011.5
20260903064602 28 164 4.8 14.5 0.00 0.00 0.00 86 1011.6
20260903064504 28 97 4.8 14.5 0.00 0.00 0.00 86 1011.5
20260903064403 28 157 6.4 17.7 0.00 0.00 0.00 86 1011.5
20260903064303 28 124 4.8 17.7 0.00 0.00 0.00 86 1011.5
20260903064203 28 161 6.4 17.7 0.00 0.00 0.00 86 1011.5
20260903064102 28 159 8.0 17.7 0.00 0.00 0.00 86 1011.5
20260903064002 28 202 8.0 17.7 0.00 0.00 0.00 86 1011.6
20260903063904 28 176 6.4 17.7 0.00 0.00 0.00 86 1011.5
20260903063802 28 113 4.8 17.7 0.00 0.00 0.00 86 1011.5
20260903063702 28 166 6.4 17.7 0.00 0.00 0.00 86 1011.5
20260903063602 28 148 9.7 17.7 0.00 0.00 0.00 86 1011.6
20260903063504 28 180 8.0 17.7 0.00 0.00 0.00 86 1011.5
20260903063403 28 172 6.4 14.5 0.00 0.00 0.00 86 1011.6
20260903063303 28 164 6.4 14.5 0.00 0.00 0.00 86 1011.6
20260903063203 28 151 6.4 14.5 0.00 0.00 0.00 86 1011.5
20260903063103 28 165 8.0 14.5 0.00 0.00 0.00 86 1011.6
20260903063003 28 135 6.4 14.5 0.00 0.00 0.00 86 1011.5
20260903062903 28 183 6.4 14.5 0.00 0.00 0.00 86 1011.5
20260903062802 28 141 6.4 14.5 0.00 0.00 0.00 85 1011.6
20260903062702 28 96 6.4 14.5 0.00 0.00 0.00 85 1011.6
20260903062601 28 183 6.4 14.5 0.00 0.00 0.00 85 1011.5
20260903062504 28 82 6.4 14.5 0.00 0.00 0.00 85 1011.5
20260903062402 28 114 8.0 14.5 0.00 0.00 0.00 85 1011.6
20260903062305 28 165 6.4 14.5 0.00 0.00 0.00 85 1011.5
20260903062204 28 141 6.4 14.5 0.00 0.00 0.00 85 1011.5
20260903062102 28 69 6.4 14.5 0.00 0.00 0.00 85 1011.5
20260903062004 28 173 6.4 14.5 0.00 0.00 0.00 85 1011.7
20260903061902 28 227 6.4 14.5 0.00 0.00 0.00 85 1011.7
20260903061802 28 166 6.4 14.5 0.00 0.00 0.00 85 1011.7
20260903061702 28 183 6.4 14.5 0.00 0.00 0.00 85 1011.7
20260903061602 28 192 8.0 14.5 0.00 0.00 0.00 85 1011.8
20260903061505 28 154 8.0 11.3 0.00 0.00 0.00 85 1011.8
20260903061402 28 166 6.4 9.7 0.00 0.00 0.00 85 1011.9
20260903061302 28 206 6.4 9.7 0.00 0.00 0.00 85 1011.9
20260903061203 28 192 6.4 9.7 0.00 0.00 0.00 85 1012.0
20260903061102 28 121 6.4 9.7 0.00 0.00 0.00 85 1011.9
20260903061003 28 197 3.2 9.7 0.00 0.00 0.00 85 1012.0
20260903060903 29 197 1.6 9.7 0.00 0.00 0.00 85 1012.1
20260903060803 29 219 3.2 9.7 0.00 0.00 0.00 85 1012.2
20260903060702 29 148 3.2 9.7 0.00 0.00 0.00 85 1012.1
20260903060603 29 202 3.2 9.7 0.00 0.00 0.00 85 1012.1
20260903060503 29 185 4.8 9.7 0.00 0.00 0.00 85 1012.1
20260903060403 29 197 3.2 9.7 0.00 0.00 0.00 85 1012.2
20260903060303 29 80 3.2 9.7 0.00 0.00 0.00 85 1012.2
20260903060202 29 188 3.2 9.7 0.00 0.00 0.00 85 1012.3
20260903060104 29 149 4.8 9.7 0.00 0.00 0.00 85 1012.3
20260903060003 29 200 4.8 9.7 0.00 0.00 0.00 85 1012.3
20260903055902 29 186 4.8 9.7 0.00 0.00 0.00 85 1012.3
20260903055803 29 164 3.2 9.7 0.00 0.00 0.00 85 1012.3
20260903055702 29 185 4.8 11.3 0.00 0.00 0.00 85 1012.3
20260903055603 29 203 4.8 11.3 0.00 0.00 0.00 85 1012.3
20260903055502 29 180 6.4 11.3 0.00 0.00 0.00 85 1012.3
20260903055403 29 147 6.4 16.1 0.00 0.00 0.00 85 1012.4
20260903055306 29 183 6.4 16.1 0.00 0.00 0.00 85 1012.3
20260903055202 29 189 6.4 16.1 0.00 0.00 0.00 85 1012.3
20260903055103 29 180 4.8 16.1 0.00 0.00 0.00 85 1012.4
20260903055002 29 188 4.8 16.1 0.00 0.00 0.00 85 1012.3
20260903054902 29 193 6.4 16.1 0.00 0.00 0.00 85 1012.4
20260903054803 29 189 6.4 16.1 0.00 0.00 0.00 85 1012.4
20260903054702 29 149 8.0 16.1 0.00 0.00 0.00 85 1012.4
20260903054602 29 152 8.0 16.1 0.00 0.00 0.00 85 1012.4
20260903054503 29 175 8.0 16.1 0.00 0.00 0.00 85 1012.5
20260903054405 29 172 8.0 16.1 0.00 0.00 0.00 85 1012.5
20260903054303 29 186 6.4 16.1 0.00 0.00 0.00 85 1012.5
20260903054202 29 166 6.4 16.1 0.00 0.00 0.00 85 1012.5
20260903054103 29 188 8.0 19.3 0.00 0.00 0.00 85 1012.5
20260903054003 29 176 8.0 19.3 0.00 0.00 0.00 85 1012.5
20260903053902 29 199 6.4 19.3 0.00 0.00 0.00 85 1012.5
20260903053803 29 223 4.8 19.3 0.00 0.00 0.00 85 1012.6
20260903053703 29 207 6.4 19.3 0.00 0.00 0.00 85 1012.5
20260903053602 29 175 6.4 19.3 0.00 0.00 0.00 85 1012.5
20260903053504 29 224 6.4 19.3 0.00 0.00 0.00 85 1012.6
20260903053405 29 227 6.4 19.3 0.00 0.00 0.00 85 1012.6
20260903053302 29 183 9.7 19.3 0.00 0.00 0.00 85 1012.5
20260903053202 29 195 9.7 19.3 0.00 0.00 0.00 85 1012.5
20260903053102 29 214 8.0 14.5 0.00 0.00 0.00 85 1012.4
20260903053003 29 183 8.0 14.5 0.00 0.00 0.00 85 1012.5
20260903052902 29 197 6.4 14.5 0.00 0.00 0.00 85 1012.5
20260903052802 29 172 4.8 16.1 0.00 0.00 0.00 85 1012.3
20260903052703 29 197 3.2 16.1 0.00 0.00 0.00 85 1012.4
20260903052603 29 183 3.2 16.1 0.00 0.00 0.00 85 1012.4
20260903052504 29 165 4.8 16.1 0.00 0.00 0.00 85 1012.4
20260903052403 29 178 4.8 16.1 0.00 0.00 0.00 85 1012.4
20260903052306 29 162 4.8 16.1 0.00 0.00 0.00 85 1012.4
20260903052202 29 165 4.8 16.1 0.00 0.00 0.00 85 1012.4
20260903052102 29 164 4.8 16.1 0.00 0.00 0.00 85 1012.4
20260903052003 29 186 6.4 16.1 0.00 0.00 0.00 85 1012.4
20260903051902 29 133 9.7 16.1 0.00 0.00 0.00 85 1012.4
20260903051802 29 171 8.0 16.1 0.00 0.00 0.00 85 1012.5
20260903051703 29 148 6.4 14.5 0.00 0.00 0.00 85 1012.4
20260903051602 29 207 6.4 14.5 0.00 0.00 0.00 85 1012.5
20260903051500 29 166 6.4 14.5 0.00 0.00 0.00 85 1012.4
20260903051358 29 186 6.4 14.5 0.00 0.00 0.00 85 1012.4
20260903051257 29 182 6.4 11.3 0.00 0.00 0.00 85 1012.4
20260903051155 29 111 6.4 11.3 0.00 0.00 0.00 85 1012.4
20260903051054 29 197 4.8 11.3 0.00 0.00 0.00 85 1012.4
20260903050954 29 188 3.2 11.3 0.00 0.00 0.00 85 1012.4
20260903050851 29 202 6.4 11.3 0.00 0.00 0.00 85 1012.3
20260903050751 29 224 6.4 11.3 0.00 0.00 0.00 85 1012.4
20260903050648 29 190 6.4 11.3 0.00 0.00 0.00 85 1012.4
20260903050547 29 176 6.4 11.3 0.00 0.00 0.00 85 1012.4
20260903050443 29 203 4.8 11.3 0.00 0.00 0.00 85 1012.4
20260903050340 29 192 4.8 11.3 0.00 0.00 0.00 85 1012.4
20260903050237 29 189 4.8 14.5 0.00 0.00 0.00 85 1012.4
20260903050137 29 206 4.8 14.5 0.00 0.00 0.00 85 1012.4
20260903050035 29 180 6.4 14.5 0.00 0.00 0.00 85 1012.4
20260903045932 29 189 6.4 14.5 0.00 0.00 0.00 85 1012.5
20260903045831 29 182 6.4 14.5 0.00 0.00 0.00 85 1012.5
20260903045731 29 155 4.8 14.5 0.00 0.00 0.00 85 1012.4
20260903045631 29 207 3.2 17.7 0.00 0.00 0.00 85 1012.4
20260903045532 29 175 6.4 17.7 0.00 0.00 0.00 85 1012.5
20260903045431 29 185 8.0 17.7 0.00 0.00 0.00 85 1012.4
20260903045331 29 169 6.4 17.7 0.00 0.00 0.00 85 1012.4
20260903045233 29 171 4.8 17.7 0.00 0.00 0.00 85 1012.4
20260903045131 29 159 6.4 17.7 0.00 0.00 0.00 85 1012.4
20260903045031 29 149 8.0 17.7 0.00 0.00 0.00 85 1012.4
20260903044931 29 85 6.4 17.7 0.00 0.00 0.00 85 1012.5
20260903044832 29 206 8.0 17.7 0.00 0.00 0.00 85 1012.5
20260903044730 29 203 9.7 17.7 0.00 0.00 0.00 85 1012.5
20260903044629 29 197 6.4 14.5 0.00 0.00 0.00 85 1012.5
20260903044527 29 154 3.2 14.5 0.00 0.00 0.00 85 1012.5
20260903044426 29 165 4.8 19.3 0.00 0.00 0.00 85 1012.5
20260903044325 29 186 6.4 19.3 0.00 0.00 0.00 85 1012.5
20260903044224 29 196 4.8 19.3 0.00 0.00 0.00 85 1012.4
20260903044123 29 219 4.8 19.3 0.00 0.00 0.00 86 1012.5
20260903044019 29 193 6.4 19.3 0.00 0.00 0.00 85 1012.4
20260903043918 29 152 6.4 19.3 0.00 0.00 0.00 86 1012.4
20260903043818 29 149 4.8 19.3 0.00 0.00 0.00 86 1012.4
20260903043716 29 185 6.4 19.3 0.00 0.00 0.00 86 1012.4
20260903043615 29 197 9.7 19.3 0.00 0.00 0.00 86 1012.4
20260903043512 29 213 9.7 19.3 0.00 0.00 0.00 86 1012.4
20260903043410 29 140 8.0 16.1 0.00 0.00 0.00 86 1012.4
20260903043305 29 123 6.4 14.5 0.00 0.00 0.00 86 1012.3
20260903043204 29 154 4.8 9.7 0.00 0.00 0.00 86 1012.4
20260903043103 29 130 4.8 9.7 0.00 0.00 0.00 86 1012.4
20260903043005 29 161 4.8 9.7 0.00 0.00 0.00 86 1012.4
20260903042904 29 162 4.8 9.7 0.00 0.00 0.00 86 1012.4
20260903042803 29 121 4.8 14.5 0.00 0.00 0.00 86 1012.4
20260903042703 29 116 4.8 14.5 0.00 0.00 0.00 86 1012.3
20260903042605 29 127 4.8 14.5 0.00 0.00 0.00 86 1012.4
20260903042504 29 114 3.2 14.5 0.00 0.00 0.00 86 1012.4
20260903042401 29 118 3.2 14.5 0.00 0.00 0.00 86 1012.4
20260903042305 29 149 3.2 16.1 0.00 0.00 0.00 86 1012.4
20260903042203 29 109 3.2 16.1 0.00 0.00 0.00 86 1012.4
20260903042102 29 131 4.8 16.1 0.00 0.00 0.00 86 1012.4
20260903042003 29 99 6.4 16.1 0.00 0.00 0.00 86 1012.5
20260903041903 29 159 6.4 16.1 0.00 0.00 0.00 86 1012.4
20260903041803 29 155 4.8 16.1 0.00 0.00 0.00 85 1012.5
20260903041702 29 89 6.4 16.1 0.00 0.00 0.00 85 1012.4
20260903041602 29 34 8.0 16.1 0.00 0.00 0.00 85 1012.4
20260903041503 29 141 6.4 16.1 0.00 0.00 0.00 85 1012.5
20260903041402 29 134 6.4 16.1 0.00 0.00 0.00 85 1012.5
20260903041302 29 189 6.4 16.1 0.00 0.00 0.00 85 1012.5
20260903041204 29 161 4.8 16.1 0.00 0.00 0.00 85 1012.4
20260903041102 29 161 4.8 16.1 0.00 0.00 0.00 85 1012.4
20260903041002 29 178 4.8 16.1 0.00 0.00 0.00 85 1012.4
20260903040902 29 134 6.4 16.1 0.00 0.00 0.00 85 1012.5
20260903040804 29 213 6.4 16.1 0.00 0.00 0.00 85 1012.4
20260903040702 29 192 8.0 16.1 0.00 0.00 0.00 85 1012.3
20260903040602 29 118 6.4 16.1 0.00 0.00 0.00 85 1012.4
20260903040504 29 109 6.4 16.1 0.00 0.00 0.00 85 1012.4
20260903040402 29 142 8.0 16.1 0.00 0.00 0.00 85 1012.3
20260903040302 29 102 8.0 16.1 0.00 0.00 0.00 85 1012.3
20260903040203 29 140 8.0 16.1 0.00 0.00 0.00 85 1012.4
20260903040103 29 207 8.0 16.1 0.00 0.00 0.00 85 1012.4
20260903040003 29 159 8.0 16.1 0.00 0.00 0.00 85 1012.4
20260903035902 29 109 6.4 17.7 0.00 0.00 0.00 85 1012.3
20260903035802 29 175 6.4 17.7 0.00 0.00 0.00 85 1012.4
20260903035702 29 131 6.4 17.7 0.00 0.00 0.00 85 1012.3
20260903035603 29 149 6.4 17.7 0.00 0.00 0.00 85 1012.4
20260903035504 29 145 8.0 17.7 0.00 0.00 0.00 85 1012.3
20260903035403 29 110 8.0 17.7 0.00 0.00 0.00 85 1012.3
20260903035306 29 186 6.4 17.7 0.00 0.00 0.00 85 1012.3
20260903035202 29 165 6.4 17.7 0.00 0.00 0.00 85 1012.3
20260903035103 29 103 6.4 17.7 0.00 0.00 0.00 85 1012.4
20260903035004 29 173 4.8 17.7 0.00 0.00 0.00 85 1012.3
20260903034903 29 149 6.4 11.3 0.00 0.00 0.00 85 1012.3
20260903034803 29 82 4.8 11.3 0.00 0.00 0.00 85 1012.3
20260903034702 29 142 4.8 11.3 0.00 0.00 0.00 85 1012.3
20260903034603 29 140 4.8 16.1 0.00 0.00 0.00 85 1012.3
20260903034504 29 124 6.4 16.1 0.00 0.00 0.00 85 1012.4
20260903034402 29 171 6.4 16.1 0.00 0.00 0.00 85 1012.4
20260903034302 29 113 6.4 16.1 0.00 0.00 0.00 85 1012.3
20260903034202 29 120 6.4 16.1 0.00 0.00 0.00 85 1012.4
20260903034102 29 130 4.8 16.1 0.00 0.00 0.00 85 1012.4
20260903034003 29 120 4.8 16.1 0.00 0.00 0.00 85 1012.3
20260903033902 29 145 6.4 16.1 0.00 0.00 0.00 85 1012.3
20260903033803 29 107 6.4 16.1 0.00 0.00 0.00 85 1012.3
20260903033704 29 127 6.4 16.1 0.00 0.00 0.00 85 1012.3
20260903033603 29 110 6.4 16.1 0.00 0.00 0.00 85 1012.3
20260903033503 29 103 6.4 16.1 0.00 0.00 0.00 85 1012.3
20260903033402 29 120 6.4 16.1 0.00 0.00 0.00 85 1012.2
20260903033302 29 56 6.4 16.1 0.00 0.00 0.00 85 1012.2
20260903033203 29 123 4.8 16.1 0.00 0.00 0.00 85 1012.3
20260903033104 29 152 6.4 16.1 0.00 0.00 0.00 85 1012.3
20260903033004 29 118 8.0 16.1 0.00 0.00 0.00 85 1012.2
20260903032902 29 135 8.0 14.5 0.00 0.00 0.00 85 1012.2
20260903032803 29 149 9.7 14.5 0.00 0.00 0.00 85 1012.2
20260903032703 29 114 9.7 14.5 0.00 0.00 0.00 85 1012.2
20260903032602 29 147 9.7 14.5 0.00 0.00 0.00 85 1012.2
20260903032502 29 154 9.7 14.5 0.00 0.00 0.00 85 1012.2
20260903032403 29 107 8.0 14.5 0.00 0.00 0.00 85 1012.2
20260903032305 29 113 6.4 14.5 0.00 0.00 0.00 85 1012.2
20260903032203 29 94 6.4 14.5 0.00 0.00 0.00 85 1012.2
20260903032103 29 93 8.0 14.5 0.00 0.00 0.00 85 1012.2
20260903032003 29 127 8.0 14.5 0.00 0.00 0.00 85 1012.1
20260903031902 29 114 8.0 14.5 0.00 0.00 0.00 85 1012.3
20260903031802 29 113 8.0 14.5 0.00 0.00 0.00 85 1012.1
20260903031702 29 114 8.0 14.5 0.00 0.00 0.00 85 1012.2
20260903031604 29 114 6.4 14.5 0.00 0.00 0.00 85 1012.1
20260903031502 29 90 6.4 14.5 0.00 0.00 0.00 85 1012.2
20260903031404 29 107 6.4 14.5 0.00 0.00 0.00 85 1012.1
20260903031303 29 116 6.4 14.5 0.00 0.00 0.00 85 1012.1
20260903031202 29 179 8.0 16.1 0.00 0.00 0.00 85 1012.2
20260903031103 29 110 9.7 16.1 0.00 0.00 0.00 85 1012.1
20260903031004 29 111 8.0 16.1 0.00 0.00 0.00 85 1012.1
20260903030903 29 148 6.4 16.1 0.00 0.00 0.00 85 1012.1
20260903030802 29 127 8.0 16.1 0.00 0.00 0.00 85 1012.0
20260903030703 29 100 8.0 16.1 0.00 0.00 0.00 85 1012.1
20260903030602 29 96 6.4 19.3 0.00 0.00 0.00 85 1012.0
20260903030502 29 133 6.4 19.3 0.00 0.00 0.00 85 1012.0
20260903030403 29 80 8.0 20.9 0.00 0.00 0.00 85 1012.1
20260903030303 29 128 8.0 20.9 0.00 0.00 0.00 85 1012.1
20260903030202 29 51 6.4 20.9 0.00 0.00 0.00 85 1012.1
20260903030002 29 159 8.0 20.9 0.00 0.00 0.00 85 1012.0
20260903025902 29 138 8.0 20.9 0.00 0.00 0.00 85 1011.9
20260903025803 29 73 9.7 20.9 0.00 0.00 0.00 85 1011.9
20260903025704 29 134 9.7 20.9 0.00 0.00 0.00 85 1012.0
20260903025602 29 97 9.7 20.9 0.00 0.00 0.00 85 1011.9
20260903025502 29 186 9.7 20.9 0.00 0.00 0.00 85 1012.0
20260903025402 29 157 6.4 14.5 0.00 0.00 0.00 85 1011.9
20260903025301 29 130 8.0 14.5 0.00 0.00 0.00 85 1012.0
20260903025202 29 149 8.0 14.5 0.00 0.00 0.00 85 1011.8
20260903025102 29 109 6.4 14.5 0.00 0.00 0.00 85 1012.0
20260903025003 29 86 6.4 11.3 0.00 0.00 0.00 84 1011.9
20260903024902 29 151 6.4 11.3 0.00 0.00 0.00 84 1011.9
20260903024801 28 123 4.8 11.3 0.00 0.00 0.00 84 1011.9
20260903024703 28 111 6.4 11.3 0.00 0.00 0.00 84 1011.9
20260903024602 28 138 6.4 11.3 0.00 0.00 0.00 84 1012.0
20260903024501 28 110 4.8 8.0 0.00 0.00 0.00 83 1011.9
20260903024402 28 111 4.8 8.0 0.00 0.00 0.00 83 1011.9
20260903024303 28 110 4.8 9.7 0.00 0.00 0.00 83 1011.9
20260903024203 28 99 4.8 9.7 0.00 0.00 0.00 83 1011.9
20260903024103 28 117 4.8 9.7 0.00 0.00 0.00 83 1012.0
20260903024003 28 97 4.8 9.7 0.00 0.00 0.00 83 1011.9
20260903023902 28 97 4.8 9.7 0.00 0.00 0.00 83 1011.9
20260903023802 28 97 4.8 9.7 0.00 0.00 0.00 83 1011.9
20260903023702 28 79 4.8 9.7 0.00 0.00 0.00 83 1011.8
20260903023604 28 79 4.8 9.7 0.00 0.00 0.00 83 1011.8
20260903023502 28 78 6.4 9.7 0.00 0.00 0.00 83 1011.7
20260903023402 28 106 8.0 9.7 0.00 0.00 0.00 83 1011.7
20260903023303 28 120 6.4 9.7 0.00 0.00 0.00 83 1011.7
20260903023202 28 130 6.4 9.7 0.00 0.00 0.00 83 1011.6
20260903023102 28 110 4.8 8.0 0.00 0.00 0.00 83 1011.6
20260903023003 28 107 4.8 8.0 0.00 0.00 0.00 83 1011.5
20260903022903 28 89 3.2 8.0 0.00 0.00 0.00 83 1011.6
20260903022802 28 137 3.2 8.0 0.00 0.00 0.00 83 1011.5
20260903022702 28 109 3.2 8.0 0.00 0.00 0.00 83 1011.4
20260903022603 28 109 4.8 9.7 0.00 0.00 0.00 83 1011.6
20260903022503 28 109 6.4 9.7 0.00 0.00 0.00 83 1011.5
20260903022402 28 116 6.4 9.7 0.00 0.00 0.00 83 1011.5
20260903022306 28 118 4.8 9.7 0.00 0.00 0.00 83 1011.5
20260903022202 28 99 3.2 9.7 0.00 0.00 0.00 83 1011.5
20260903022104 28 97 4.8 9.7 0.00 0.00 0.00 83 1011.4
20260903022004 28 92 6.4 9.7 0.00 0.00 0.00 83 1011.4
20260903021903 28 92 6.4 9.7 0.00 0.00 0.00 83 1011.4
20260903021802 28 92 8.0 9.7 0.00 0.00 0.00 83 1011.4
20260903021702 28 89 8.0 9.7 0.00 0.00 0.00 83 1011.4
20260903021605 28 82 8.0 9.7 0.00 0.00 0.00 83 1011.3
20260903021503 28 69 8.0 9.7 0.00 0.00 0.00 83 1011.3
20260903021402 28 71 6.4 9.7 0.00 0.00 0.00 83 1011.3
20260903021302 28 59 6.4 8.0 0.00 0.00 0.00 83 1011.3
20260903021203 28 61 6.4 8.0 0.00 0.00 0.00 83 1011.3
20260903021102 27 59 4.8 8.0 0.00 0.00 0.00 83 1011.4
20260903021002 27 76 4.8 8.0 0.00 0.00 0.00 83 1011.3
20260903020903 27 76 4.8 9.7 0.00 0.00 0.00 83 1011.3
20260903020802 27 76 4.8 9.7 0.00 0.00 0.00 83 1011.3
20260903020702 27 76 4.8 9.7 0.00 0.00 0.00 83 1011.3
20260903020603 27 76 4.8 9.7 0.00 0.00 0.00 83 1011.3
20260903020503 27 76 4.8 9.7 0.00 0.00 0.00 83 1011.2
20260903020402 27 85 4.8 9.7 0.00 0.00 0.00 83 1011.2
20260903020302 27 82 4.8 9.7 0.00 0.00 0.00 83 1011.1
20260903020204 27 100 6.4 9.7 0.00 0.00 0.00 83 1011.1
20260903020003 27 107 8.0 9.7 0.00 0.00 0.00 83 1011.0
20260903015904 27 109 6.4 8.0 0.00 0.00 0.00 83 1011.0
20260903015802 27 93 4.8 6.4 0.00 0.00 0.00 83 1011.0
20260903015702 27 106 4.8 6.4 0.00 0.00 0.00 83 1011.0
20260903015601 27 135 3.2 6.4 0.00 0.00 0.00 83 1011.0
20260903015502 27 87 1.6 6.4 0.00 0.00 0.00 83 1011.0
20260903015402 27 120 3.2 6.4 0.00 0.00 0.00 83 1011.1
20260903015305 27 118 4.8 6.4 0.00 0.00 0.00 83 1011.1
20260903015203 27 102 6.4 6.4 0.00 0.00 0.00 83 1011.2
20260903015102 27 66 3.2 6.4 0.00 0.00 0.00 83 1011.2
20260903015003 27 65 3.2 6.4 0.00 0.00 0.00 83 1011.3
20260903014902 27 65 3.2 6.4 0.00 0.00 0.00 83 1011.3
20260903014803 27 65 4.8 8.0 0.00 0.00 0.00 83 1011.3
20260903014702 27 65 4.8 8.0 0.00 0.00 0.00 83 1011.4
20260903014602 27 63 3.2 8.0 0.00 0.00 0.00 82 1011.4
20260903014503 27 63 3.2 8.0 0.00 0.00 0.00 82 1011.4
20260903014403 27 63 4.8 9.7 0.00 0.00 0.00 82 1011.5
20260903014302 27 59 3.2 9.7 0.00 0.00 0.00 82 1011.5
20260903014202 27 59 3.2 11.3 0.00 0.00 0.00 82 1011.5
20260903014103 27 59 4.8 11.3 0.00 0.00 0.00 82 1011.5
20260903014004 27 52 6.4 11.3 0.00 0.00 0.00 81 1011.5
20260903013902 27 51 6.4 11.3 0.00 0.00 0.00 81 1011.5
20260903013803 27 32 4.8 16.1 0.00 0.00 0.00 81 1011.7
20260903013702 27 24 4.8 16.1 0.00 0.00 0.00 81 1011.6
20260903013603 28 37 6.4 16.1 0.00 0.00 0.00 81 1011.7
20260903013503 28 32 8.0 16.1 0.00 0.00 0.00 80 1011.7
20260903013403 28 42 8.0 16.1 0.00 0.00 0.00 80 1011.7
20260903013302 28 30 8.0 16.1 0.00 0.00 0.00 80 1011.7
20260903013202 28 30 8.0 16.1 0.00 0.00 0.00 80 1011.6
20260903013103 28 31 8.0 16.1 0.00 0.00 0.00 80 1011.6
20260903013003 28 41 9.7 16.1 0.00 0.00 0.00 80 1011.6
20260903012902 28 24 9.7 16.1 0.00 0.00 0.00 79 1011.5
20260903012804 28 49 9.7 16.1 0.00 0.00 0.00 79 1011.4
20260903012702 28 28 8.0 16.1 0.00 0.00 0.00 79 1011.4
20260903012602 28 30 8.0 16.1 0.00 0.00 0.00 79 1011.3
20260903012503 28 13 8.0 16.1 0.00 0.00 0.00 79 1011.2
20260903012403 28 25 8.0 16.1 0.00 0.00 0.00 79 1011.2
20260903012302 28 54 8.0 17.7 0.00 0.00 0.00 79 1011.2
20260903012202 28 71 8.0 17.7 0.00 0.00 0.00 79 1011.2
20260903012104 28 52 9.7 17.7 0.00 0.00 0.00 79 1011.2
20260903012002 28 68 11.3 19.3 0.00 0.00 0.00 78 1011.3
20260903011903 28 58 9.7 19.3 0.00 0.00 0.00 78 1011.3
20260903011803 28 58 8.0 19.3 0.00 0.00 0.00 78 1011.4
20260903011703 28 47 9.7 24.1 0.00 0.00 0.00 78 1011.4
20260903011602 28 85 11.3 24.1 0.00 0.00 0.00 78 1011.3
20260903011503 28 49 12.9 24.1 0.00 0.00 0.00 78 1011.3
20260903011404 28 61 11.3 25.7 0.00 0.00 0.00 78 1011.3
20260903011303 28 49 9.7 25.7 0.00 0.00 0.00 77 1011.4
20260903011202 28 24 12.9 25.7 0.00 0.00 0.00 77 1011.3
20260903011102 28 49 12.9 25.7 0.00 0.00 0.00 77 1011.3
20260903011003 29 54 9.7 25.7 0.00 0.00 0.00 76 1011.4
20260903010902 29 56 12.9 25.7 0.00 0.00 0.00 76 1011.4
20260903010803 29 39 14.5 25.7 0.00 0.00 0.00 76 1011.4
20260903010704 29 49 16.1 25.7 0.00 0.00 0.00 76 1011.5
20260903010603 29 39 19.3 25.7 0.00 0.00 0.00 76 1011.4
20260903010502 29 27 17.7 25.7 0.00 0.00 0.00 76 1011.4
20260903010403 29 48 16.1 25.7 0.00 0.00 0.00 76 1011.3
20260903010302 30 7 14.5 20.9 0.00 0.00 0.00 76 1011.3
20260903010201 30 24 14.5 20.9 0.00 0.00 0.00 76 1011.2
20260903010004 30 41 14.5 20.9 0.00 0.00 0.00 76 1010.9
20260903005904 30 85 14.5 20.9 0.00 0.00 0.00 76 1010.9
20260903005802 30 71 12.9 20.9 0.00 0.00 0.00 76 1010.9
20260903005703 30 89 11.3 19.3 0.00 0.00 0.00 75 1010.9
20260903005603 30 100 11.3 19.3 0.00 0.00 0.00 75 1010.9
20260903005503 30 62 8.0 22.5 0.00 0.00 0.00 75 1010.8
20260903005403 30 68 8.0 22.5 0.00 0.00 0.00 74 1010.7
20260903005306 30 62 8.0 22.5 0.00 0.00 0.00 74 1010.7
20260903005203 30 68 9.7 22.5 0.00 0.00 0.00 73 1010.6
20260903005102 30 56 12.9 22.5 0.00 0.00 0.00 73 1010.6
20260903005003 30 83 12.9 24.1 0.00 0.00 0.00 73 1010.4
20260903004902 30 34 12.9 24.1 0.00 0.00 0.00 73 1010.4
20260903004803 30 24 12.9 24.1 0.00 0.00 0.00 72 1010.4
20260903004703 30 35 14.5 24.1 0.00 0.00 0.00 71 1010.4
20260903004603 31 37 12.9 24.1 0.00 0.00 0.00 71 1010.4
20260903004502 31 51 8.0 24.1 0.00 0.00 0.00 70 1010.4
20260903004402 31 75 8.0 24.1 0.00 0.00 0.00 69 1010.5
20260903004303 31 52 14.5 24.1 0.00 0.00 0.00 68 1010.4
20260903004202 31 37 16.1 24.1 0.00 0.00 0.00 68 1010.5
20260903004103 31 38 14.5 24.1 0.00 0.00 0.00 66 1010.6
20260903004003 31 104 12.9 20.9 0.00 0.00 0.00 66 1010.5
20260903003903 31 85 11.3 20.9 0.00 0.00 0.00 66 1010.5
20260903003804 31 86 9.7 20.9 0.00 0.00 0.00 66 1010.5
20260903003705 31 90 6.4 17.7 0.00 0.00 0.00 66 1010.5
20260903003602 31 86 6.4 17.7 0.00 0.00 0.00 66 1010.6
20260903003502 31 97 6.4 17.7 0.00 0.00 0.00 66 1010.6
20260903003403 32 120 6.4 17.7 0.00 0.00 0.00 65 1010.6
20260903003304 32 196 6.4 17.7 0.00 0.00 0.00 65 1010.6
20260903003203 32 130 8.0 17.7 0.00 0.00 0.00 65 1010.6
20260903003102 32 42 9.7 17.7 0.00 0.00 0.00 65 1010.6
20260903003005 32 141 9.7 17.7 0.00 0.00 0.00 65 1010.6
20260903002902 32 149 8.0 30.6 0.00 0.00 0.00 65 1010.6
20260903002802 32 175 8.0 30.6 0.00 0.00 0.00 65 1010.6
20260903002702 32 154 8.0 30.6 0.00 0.00 0.00 65 1010.5
20260903002604 32 223 6.4 30.6 0.00 0.00 0.00 65 1010.4
20260903002502 32 102 8.0 30.6 0.00 0.00 0.00 65 1010.4
20260903002402 32 206 8.0 30.6 0.00 0.00 0.00 65 1010.4
20260903002306 32 161 8.0 30.6 0.00 0.00 0.00 65 1010.3
20260903002202 32 237 8.0 30.6 0.00 0.00 0.00 65 1010.3
20260903002102 32 89 9.7 30.6 0.00 0.00 0.00 65 1010.2
20260903002004 32 188 12.9 30.6 0.00 0.00 0.00 65 1010.2
20260903001902 32 111 9.7 30.6 0.00 0.00 0.00 65 1010.1
20260903001803 32 133 9.7 30.6 0.00 0.00 0.00 65 1010.1
20260903001704 32 182 9.7 30.6 0.00 0.00 0.00 65 1010.1
20260903001602 32 162 11.3 30.6 0.00 0.00 0.00 66 1010.0
20260903001502 32 142 11.3 30.6 0.00 0.00 0.00 66 1010.0
20260903001401 32 185 9.7 30.6 0.00 0.00 0.00 66 1010.0
20260903001303 32 76 9.7 32.2 0.00 0.00 0.00 65 1009.9
20260903001203 32 144 14.5 32.2 0.00 0.00 0.00 65 1009.9
20260903001102 32 237 16.1 32.2 0.00 0.00 0.00 65 1009.8
20260903001002 32 189 12.9 32.2 0.00 0.00 0.00 65 1009.8
20260903000902 32 161 12.9 32.2 0.00 0.00 0.00 65 1009.7
20260903000803 32 178 12.9 32.2 0.00 0.00 0.00 65 1009.7
20260903000702 32 173 11.3 32.2 0.00 0.00 0.00 65 1009.6
20260903000603 32 172 11.3 32.2 0.00 0.00 0.00 66 1009.7
20260903000504 32 185 14.5 32.2 0.00 0.00 0.00 65 1009.6
20260903000402 32 152 14.5 32.2 0.00 0.00 0.00 65 1009.5
20260903000303 32 233 14.5 27.4 0.00 0.00 0.00 65 1009.5
20260903000204 32 195 14.5 27.4 0.00 0.00 0.00 65 1009.3
20260903000003 32 152 11.3 25.7 0.00 0.00 0.00 65 1009.3
20260902235903 32 176 8.0 25.7 0.00 0.00 0.00 65 1009.1
20260902235803 32 269 9.7 25.7 0.00 0.00 0.00 65 1009.2
20260902235704 32 99 14.5 25.7 0.00 0.00 0.00 65 1009.2
20260902235603 32 175 16.1 25.7 0.00 0.00 0.00 65 1009.1
20260902235503 32 142 12.9 25.7 0.00 0.00 0.00 65 1009.2
20260902235402 32 171 11.3 25.7 0.00 0.00 0.00 65 1009.2
20260902235305 32 185 12.9 25.7 0.00 0.00 0.00 64 1009.2
20260902235203 32 188 12.9 25.7 0.00 0.00 0.00 64 1009.1
20260902235102 32 103 14.5 25.7 0.00 0.00 0.00 64 1009.1
20260902235003 32 188 11.3 25.7 0.00 0.00 0.00 64 1009.1
20260902234904 33 128 8.0 25.7 0.00 0.00 0.00 64 1009.1
20260902234802 33 152 9.7 25.7 0.00 0.00 0.00 64 1009.1
20260902234701 33 92 9.7 25.7 0.00 0.00 0.00 64 1009.0
20260902234602 33 159 11.3 25.7 0.00 0.00 0.00 64 1009.0
20260902234505 33 159 11.3 25.7 0.00 0.00 0.00 64 1008.9
20260902234402 33 147 9.7 25.7 0.00 0.00 0.00 64 1008.9
20260902234302 33 134 11.3 25.7 0.00 0.00 0.00 63 1008.9
20260902234203 33 188 12.9 25.7 0.00 0.00 0.00 63 1008.9
20260902234103 33 261 12.9 25.7 0.00 0.00 0.00 63 1008.9
20260902234004 33 130 12.9 25.7 0.00 0.00 0.00 63 1009.0
20260902233904 33 164 12.9 25.7 0.00 0.00 0.00 63 1009.0
20260902233803 33 124 11.3 25.7 0.00 0.00 0.00 63 1009.0
20260902233703 33 171 8.0 25.7 0.00 0.00 0.00 63 1009.1
20260902233603 33 168 6.4 27.4 0.00 0.00 0.00 63 1009.0
20260902233505 33 168 9.7 27.4 0.00 0.00 0.00 63 1009.1
20260902233403 33 162 11.3 27.4 0.00 0.00 0.00 63 1009.1
20260902233302 33 116 9.7 27.4 0.00 0.00 0.00 63 1009.1
20260902233203 33 157 11.3 27.4 0.00 0.00 0.00 62 1009.1
20260902233103 33 27 12.9 27.4 0.00 0.00 0.00 62 1009.1
20260902233003 33 134 12.9 27.4 0.00 0.00 0.00 62 1009.2
20260902232903 33 162 14.5 27.4 0.00 0.00 0.00 62 1009.2
20260902232803 33 196 14.5 27.4 0.00 0.00 0.00 62 1009.3
20260902232702 33 164 9.7 27.4 0.00 0.00 0.00 62 1009.2
20260902232602 33 183 6.4 25.7 0.00 0.00 0.00 62 1009.2
20260902232504 33 71 8.0 25.7 0.00 0.00 0.00 62 1009.3
20260902232402 33 154 11.3 25.7 0.00 0.00 0.00 62 1009.3
20260902232302 33 124 11.3 25.7 0.00 0.00 0.00 62 1009.4
20260902232203 33 137 9.7 25.7 0.00 0.00 0.00 62 1009.4
20260902232103 33 255 11.3 25.7 0.00 0.00 0.00 62 1009.4
20260902232004 33 114 11.3 25.7 0.00 0.00 0.00 62 1009.4
20260902231902 33 157 9.7 22.5 0.00 0.00 0.00 62 1009.5
20260902231802 33 207 9.7 20.9 0.00 0.00 0.00 63 1009.4
20260902231703 33 186 9.7 20.9 0.00 0.00 0.00 63 1009.4
20260902231602 33 130 8.0 17.7 0.00 0.00 0.00 63 1009.4
20260902231503 33 109 8.0 17.7 0.00 0.00 0.00 63 1009.4
20260902231402 33 265 6.4 17.7 0.00 0.00 0.00 63 1009.3
20260902231304 33 107 8.0 17.7 0.00 0.00 0.00 63 1009.3
20260902231203 33 179 9.7 17.7 0.00 0.00 0.00 63 1009.3
20260902231104 33 161 9.7 20.9 0.00 0.00 0.00 63 1009.3
20260902231002 33 171 6.4 20.9 0.00 0.00 0.00 63 1009.2
20260902230902 33 180 4.8 20.9 0.00 0.00 0.00 63 1009.2
20260902230803 33 71 8.0 20.9 0.00 0.00 0.00 63 1009.2
20260902230702 33 216 9.7 20.9 0.00 0.00 0.00 63 1009.3
20260902230603 33 137 8.0 20.9 0.00 0.00 0.00 63 1009.2
20260902230502 33 142 8.0 20.9 0.00 0.00 0.00 63 1009.3
20260902230359 33 189 9.7 20.9 0.00 0.00 0.00 63 1009.2
20260902230258 33 162 11.3 20.9 0.00 0.00 0.00 63 1009.4
20260902230155 33 134 9.7 20.9 0.00 0.00 0.00 63 1009.4
20260902230056 33 157 8.0 20.9 0.00 0.00 0.00 63 1009.3
20260902225954 33 179 9.7 20.9 0.00 0.00 0.00 63 1009.3
20260902225856 33 142 9.7 25.7 0.00 0.00 0.00 63 1009.3
20260902225754 33 157 9.7 25.7 0.00 0.00 0.00 63 1009.1
20260902225655 33 131 9.7 25.7 0.00 0.00 0.00 63 1009.1
20260902225556 33 172 9.7 25.7 0.00 0.00 0.00 63 1009.1
20260902225455 33 188 9.7 25.7 0.00 0.00 0.00 63 1009.0
20260902225354 33 144 9.7 25.7 0.00 0.00 0.00 63 1009.1
20260902225254 33 176 9.7 25.7 0.00 0.00 0.00 63 1009.0
20260902225154 33 152 11.3 25.7 0.00 0.00 0.00 63 1009.0
20260902225054 33 235 9.7 25.7 0.00 0.00 0.00 63 1009.0
20260902224955 33 234 9.7 25.7 0.00 0.00 0.00 62 1009.0
20260902224856 33 159 9.7 25.7 0.00 0.00 0.00 62 1009.0
20260902224755 34 175 11.3 27.4 0.00 0.00 0.00 62 1009.0
20260902224655 34 130 11.3 27.4 0.00 0.00 0.00 62 1009.0
20260902224554 34 147 9.7 27.4 0.00 0.00 0.00 62 1009.0
20260902224455 34 133 9.7 27.4 0.00 0.00 0.00 62 1009.1
20260902224354 34 155 11.3 27.4 0.00 0.00 0.00 62 1009.2
20260902224254 34 151 11.3 27.4 0.00 0.00 0.00 61 1009.1
20260902224155 34 149 12.9 27.4 0.00 0.00 0.00 61 1009.1
20260902224054 34 169 14.5 27.4 0.00 0.00 0.00 61 1009.2
20260902223955 34 175 12.9 27.4 0.00 0.00 0.00 61 1009.2
20260902223856 34 128 12.9 27.4 0.00 0.00 0.00 61 1009.3
20260902223754 34 133 9.7 20.9 0.00 0.00 0.00 61 1009.3
20260902223655 34 159 6.4 17.7 0.00 0.00 0.00 62 1009.3
20260902223554 34 137 6.4 17.7 0.00 0.00 0.00 61 1009.3
20260902223455 34 127 6.4 17.7 0.00 0.00 0.00 62 1009.3
20260902223354 34 176 6.4 17.7 0.00 0.00 0.00 62 1009.3
20260902223254 34 97 8.0 20.9 0.00 0.00 0.00 62 1009.2
20260902223155 34 166 8.0 22.5 0.00 0.00 0.00 61 1009.3
20260902223055 34 135 6.4 22.5 0.00 0.00 0.00 62 1009.3
20260902222953 34 149 8.0 22.5 0.00 0.00 0.00 62 1009.3
20260902222854 34 128 9.7 22.5 0.00 0.00 0.00 61 1009.3
20260902222756 34 147 8.0 22.5 0.00 0.00 0.00 61 1009.3
20260902222653 34 149 8.0 22.5 0.00 0.00 0.00 61 1009.2
20260902222554 34 207 9.7 22.5 0.00 0.00 0.00 61 1009.2
20260902222455 34 137 8.0 22.5 0.00 0.00 0.00 61 1009.3
20260902222355 34 82 9.7 22.5 0.00 0.00 0.00 61 1009.3
20260902222253 34 133 9.7 22.5 0.00 0.00 0.00 61 1009.2
20260902222155 34 255 8.0 19.3 0.00 0.00 0.00 62 1009.4
20260902222055 34 128 6.4 20.9 0.00 0.00 0.00 62 1009.3
20260902221954 34 120 6.4 20.9 0.00 0.00 0.00 61 1009.3
20260902221854 34 120 8.0 20.9 0.00 0.00 0.00 61 1009.4
20260902221754 34 141 9.7 20.9 0.00 0.00 0.00 61 1009.4
20260902221654 34 235 8.0 20.9 0.00 0.00 0.00 61 1009.4
20260902221554 34 123 4.8 22.5 0.00 0.00 0.00 61 1009.4
20260902221454 34 157 9.7 22.5 0.00 0.00 0.00 61 1009.4
20260902221355 34 151 9.7 22.5 0.00 0.00 0.00 61 1009.3
20260902221254 34 99 9.7 22.5 0.00 0.00 0.00 61 1009.3
20260902221154 34 154 11.3 24.1 0.00 0.00 0.00 60 1009.4
20260902221056 34 148 9.7 24.1 0.00 0.03 0.00 61 1009.4
20260902220953 34 135 8.0 24.1 0.00 0.03 0.00 61 1009.4
20260902220854 34 121 9.7 24.1 0.00 0.03 0.00 61 1009.3
20260902220753 34 83 14.5 24.1 0.00 0.03 0.00 60 1009.4
20260902220653 34 140 11.3 24.1 0.00 0.03 0.00 60 1009.4
20260902220554 34 121 8.0 24.1 0.00 0.03 0.00 61 1009.3
20260902220453 34 142 9.7 24.1 0.00 0.03 0.00 61 1009.4
20260902220354 34 185 12.9 24.1 0.00 0.03 0.00 60 1009.3
20260902220254 34 176 11.3 24.1 0.00 0.03 0.00 60 1009.4
20260902220153 34 212 9.7 24.1 0.00 0.03 0.00 60 1009.4
20260902220053 34 92 8.0 24.1 0.00 0.03 0.00 60 1009.4
20260902215954 34 172 11.3 24.1 0.00 0.03 0.00 60 1009.4
20260902215854 34 147 12.9 24.1 0.00 0.03 0.00 60 1009.4
20260902215753 34 135 9.7 22.5 0.00 0.03 0.00 60 1009.4
20260902215654 34 169 9.7 22.5 0.00 0.03 0.00 61 1009.5
20260902215554 34 140 9.7 22.5 0.00 0.03 0.00 61 1009.4
20260902215453 34 92 9.7 22.5 0.00 0.03 0.00 61 1009.4
20260902215354 34 120 9.7 22.5 0.00 0.03 0.00 61 1009.5
20260902215254 34 147 11.3 22.5 0.00 0.03 0.00 61 1009.4
20260902215153 34 168 12.9 22.5 0.00 0.03 0.00 60 1009.4
20260902215053 35 172 11.3 22.5 0.00 0.03 0.00 61 1009.6
20260902214955 35 144 9.7 22.5 0.00 0.03 0.00 61 1009.5
20260902214853 34 259 8.0 22.5 0.00 0.03 0.00 61 1009.6
20260902214752 35 141 11.3 22.5 0.00 0.03 0.00 60 1009.6
20260902214654 35 125 11.3 22.5 0.00 0.03 0.00 60 1009.4
20260902214553 35 200 8.0 20.9 0.00 0.03 0.00 60 1009.4
20260902214453 35 173 8.0 20.9 0.00 0.03 0.00 60 1009.5
20260902214353 35 164 11.3 20.9 0.00 0.03 0.00 60 1009.4
20260902214255 35 124 12.9 20.9 0.00 0.03 0.00 60 1009.4
20260902214153 35 171 11.3 20.9 0.00 0.03 0.00 60 1009.5
20260902214053 35 169 8.0 22.5 0.00 0.03 0.00 61 1009.4
20260902213954 35 190 6.4 24.1 0.00 0.03 0.00 61 1009.4
20260902213854 35 175 9.7 24.1 0.00 0.03 0.00 61 1009.4
20260902213754 35 144 9.7 24.1 0.00 0.03 0.00 61 1009.5
20260902213652 35 145 8.0 24.1 0.00 0.03 0.00 61 1009.4
20260902213553 35 226 8.0 24.1 0.00 0.03 0.00 61 1009.5
20260902213454 35 124 6.4 24.1 0.00 0.03 0.00 61 1009.5
20260902213353 35 159 6.4 24.1 0.00 0.03 0.00 61 1009.5
20260902213253 35 193 11.3 24.1 0.00 0.03 0.00 60 1009.5
20260902213154 35 171 14.5 24.1 0.00 0.03 0.00 60 1009.5
20260902213052 35 142 9.7 24.1 0.00 0.03 0.00 60 1009.5
20260902212953 35 92 9.7 19.3 0.00 0.03 0.00 60 1009.5
20260902212853 35 168 8.0 19.3 0.00 0.03 0.00 60 1009.5
20260902212752 35 85 8.0 19.3 0.00 0.03 0.00 60 1009.5
20260902212652 35 166 9.7 19.3 0.00 0.03 0.00 60 1009.5
20260902212553 35 151 8.0 20.9 0.00 0.03 0.00 60 1009.5
20260902212453 35 193 6.4 20.9 0.00 0.03 0.00 60 1009.6
20260902212353 35 83 6.4 20.9 0.00 0.03 0.00 60 1009.6
20260902212253 35 80 9.7 20.9 0.00 0.03 0.00 60 1009.6
20260902212153 35 138 9.7 20.9 0.00 0.03 0.00 61 1009.6
20260902212052 35 110 9.7 20.9 0.00 0.03 0.00 60 1009.6
20260902211952 35 147 9.7 20.9 0.00 0.03 0.00 60 1009.5
20260902211853 35 149 9.7 20.9 0.00 0.03 0.00 60 1009.6
20260902211753 35 192 11.3 20.9 0.00 0.03 0.00 60 1009.6
20260902211652 35 137 9.7 20.9 0.00 0.03 0.00 60 1009.6
20260902211552 35 216 8.0 17.7 0.00 0.03 0.00 60 1009.6
20260902211454 35 197 8.0 17.7 0.00 0.03 0.00 60 1009.6
20260902211352 35 123 9.7 17.7 0.00 0.03 0.00 59 1009.6
20260902211252 35 120 9.7 17.7 0.00 0.03 0.00 59 1009.8
20260902211154 35 155 8.0 17.7 0.00 0.03 0.00 59 1009.7
20260902211053 35 209 8.0 19.3 0.00 0.03 0.00 59 1009.8
20260902210953 35 212 4.8 19.3 0.00 0.03 0.00 60 1009.8
20260902210854 35 188 4.8 19.3 0.00 0.03 0.00 60 1009.8
20260902210753 35 152 6.4 19.3 0.00 0.03 0.00 60 1009.8
20260902210654 35 230 6.4 19.3 0.00 0.03 0.00 60 1009.8
20260902210551 35 106 6.4 19.3 0.00 0.03 0.00 60 1009.8
20260902210453 35 113 9.7 19.3 0.00 0.03 0.00 60 1009.8
20260902210353 35 195 9.7 19.3 0.00 0.03 0.00 60 1009.8
20260902210253 35 94 9.7 19.3 0.00 0.03 0.00 60 1009.8
20260902210154 35 154 9.7 19.3 0.00 0.03 0.00 60 1009.8
20260902210053 35 61 9.7 20.9 0.00 0.03 0.00 61 1009.7
20260902205951 35 130 9.7 20.9 0.00 0.03 0.00 60 1009.7